Time,TemperatureF,DewpointF,PressureIn,WindDirection,WindDirectionDegrees,WindSpeedMPH,WindSpeedGustMPH,Humidity,HourlyPrecipIn,Conditions,Clouds,dailyrainin,SoftwareType,DateUTC
2013-01-28 00:00:00,20.2,3.2,30.43,NNW,342,0.0,0.0,47,0.00,,SKC,0.00,VWS V14.01,2013-01-28 05:00:00,
2013-01-28 00:02:00,20.2,3.2,30.43,NNW,342,0.0,0.0,47,0.00,,SKC,0.00,VWS V14.01,2013-01-28 05:02:00,
2013-01-28 00:03:00,20.0,2.1,30.43,NNW,343,0.0,0.0,45,0.00,,SKC,0.00,VWS V14.01,2013-01-28 05:03:00,
2013-01-28 00:05:00,20.0,2.1,30.43,NNW,342,0.0,0.0,45,0.00,,SKC,0.00,VWS V14.01,2013-01-28 05:05:00,
2013-01-28 00:07:00,19.9,1.5,30.43,NNW,342,0.0,0.0,44,0.00,,SKC,0.00,VWS V14.01,2013-01-28 05:07:00,
2013-01-28 00:08:00,19.9,1.5,30.43,NNW,342,0.0,0.0,44,0.00,,SKC,0.00,VWS V14.01,2013-01-28 05:08:00,
2013-01-28 00:09:00,19.9,3.4,30.43,NNW,342,0.0,0.0,48,0.00,,SKC,0.00,VWS V14.01,2013-01-28 05:09:00,
2013-01-28 00:10:00,19.7,3.2,30.43,NNW,342,0.0,0.0,48,0.00,,SKC,0.00,VWS V14.01,2013-01-28 05:10:00,
2013-01-28 00:12:00,19.7,2.8,30.43,NNW,342,0.0,0.0,47,0.00,,SKC,0.00,VWS V14.01,2013-01-28 05:12:00,
2013-01-28 00:13:00,19.7,2.8,30.43,NNW,342,0.0,0.0,47,0.00,,SKC,0.00,VWS V14.01,2013-01-28 05:13:00,
2013-01-28 00:14:00,19.7,2.8,30.42,NNW,342,0.0,0.0,47,0.00,,SKC,0.00,VWS V14.01,2013-01-28 05:14:00,
2013-01-28 00:15:00,19.7,2.8,30.42,NNW,342,0.0,0.0,47,0.00,,SKC,0.00,VWS V14.01,2013-01-28 05:15:00,
2013-01-28 00:16:00,19.7,2.3,30.42,NNW,342,0.0,0.0,46,0.00,,SKC,0.00,VWS V14.01,2013-01-28 05:16:00,
2013-01-28 00:18:00,19.5,2.1,30.42,NNW,342,0.0,0.0,46,0.00,,SKC,0.00,VWS V14.01,2013-01-28 05:18:00,
2013-01-28 00:19:00,19.5,2.1,30.42,NNW,342,0.0,0.0,46,0.00,,SKC,0.00,VWS V14.01,2013-01-28 05:19:00,
2013-01-28 00:20:00,19.5,2.1,30.42,NNW,342,0.0,0.0,46,0.00,,SKC,0.00,VWS V14.01,2013-01-28 05:20:00,
2013-01-28 00:22:00,19.5,3.0,30.42,NNW,342,0.0,0.0,48,0.00,,SKC,0.00,VWS V14.01,2013-01-28 05:22:00,
2013-01-28 00:23:00,19.5,3.0,30.42,NNW,342,0.0,0.0,48,0.00,,SKC,0.00,VWS V14.01,2013-01-28 05:23:00,
2013-01-28 00:24:00,19.5,3.0,30.42,NW,306,0.0,0.0,48,0.00,,SKC,0.00,VWS V14.01,2013-01-28 05:24:00,
2013-01-28 00:25:00,19.5,2.1,30.42,NW,306,0.0,0.0,46,0.00,,SKC,0.00,VWS V14.01,2013-01-28 05:25:00,
2013-01-28 00:27:00,19.4,2.0,30.42,NW,306,0.0,0.0,46,0.00,,SKC,0.00,VWS V14.01,2013-01-28 05:27:00,
2013-01-28 00:28:00,19.4,2.0,30.42,NW,308,0.0,0.0,46,0.00,,SKC,0.00,VWS V14.01,2013-01-28 05:28:00,
2013-01-28 00:29:00,19.4,2.0,30.42,NW,306,0.0,0.0,46,0.00,,SKC,0.00,VWS V14.01,2013-01-28 05:29:00,
2013-01-28 00:30:00,19.4,2.0,30.42,NW,308,0.0,0.0,46,0.00,,SKC,0.00,VWS V14.01,2013-01-28 05:30:00,
2013-01-28 00:32:00,19.4,1.5,30.42,NW,309,0.0,0.0,45,0.00,,SKC,0.00,VWS V14.01,2013-01-28 05:32:00,
2013-01-28 00:33:00,19.4,1.5,30.42,NW,308,0.0,0.0,45,0.00,,SKC,0.00,VWS V14.01,2013-01-28 05:33:00,
2013-01-28 00:34:00,19.4,1.5,30.42,NW,308,0.0,0.0,45,0.00,,SKC,0.00,VWS V14.01,2013-01-28 05:34:00,
2013-01-28 00:35:00,19.4,3.4,30.42,NW,309,0.0,0.0,49,0.00,,SKC,0.00,VWS V14.01,2013-01-28 05:35:00,
2013-01-28 00:37:00,19.2,3.6,30.42,NW,308,0.0,0.0,50,0.00,,SKC,0.00,VWS V14.01,2013-01-28 05:37:00,
2013-01-28 00:39:00,19.2,3.2,30.42,NW,309,0.0,0.0,49,0.00,,SKC,0.00,VWS V14.01,2013-01-28 05:39:00,
2013-01-28 00:40:00,19.2,3.2,30.42,NW,308,0.0,0.0,49,0.00,,SKC,0.00,VWS V14.01,2013-01-28 05:40:00,
2013-01-28 00:42:00,19.1,3.1,30.42,NW,308,0.0,0.0,49,0.00,,SKC,0.00,VWS V14.01,2013-01-28 05:42:00,
2013-01-28 00:44:00,19.1,3.1,30.41,NW,308,0.0,0.0,49,0.00,,SKC,0.00,VWS V14.01,2013-01-28 05:44:00,
2013-01-28 00:45:00,19.1,3.1,30.41,NW,309,0.0,0.0,49,0.00,,SKC,0.00,VWS V14.01,2013-01-28 05:45:00,
2013-01-28 00:47:00,18.9,2.9,30.41,NW,308,0.0,0.0,49,0.00,,SKC,0.00,VWS V14.01,2013-01-28 05:47:00,
2013-01-28 00:49:00,18.9,1.5,30.41,NW,309,0.0,0.0,46,0.00,,SKC,0.00,VWS V14.01,2013-01-28 05:49:00,
2013-01-28 00:50:00,18.9,1.5,30.41,NW,308,0.0,0.0,46,0.00,,SKC,0.00,VWS V14.01,2013-01-28 05:50:00,
2013-01-28 00:53:00,18.8,1.0,30.41,NW,312,0.0,0.0,45,0.00,,SKC,0.00,VWS V14.01,2013-01-28 05:53:00,
2013-01-28 00:54:00,18.8,1.5,30.41,NW,308,0.0,0.0,46,0.00,,SKC,0.00,VWS V14.01,2013-01-28 05:54:00,
2013-01-28 00:55:00,18.8,1.5,30.41,NW,308,0.0,0.0,46,0.00,,SKC,0.00,VWS V14.01,2013-01-28 05:55:00,
2013-01-28 00:56:00,18.8,1.5,30.41,NW,308,0.0,0.0,46,0.00,,SKC,0.00,VWS V14.01,2013-01-28 05:56:00,
2013-01-28 00:58:00,18.8,1.5,30.41,NW,308,0.0,0.0,46,0.00,,SKC,0.00,VWS V14.01,2013-01-28 05:58:00,
2013-01-28 01:00:00,18.9,1.5,30.40,NW,308,0.0,0.0,46,0.00,,SKC,0.00,VWS V14.01,2013-01-28 06:00:00,
2013-01-28 01:01:00,18.9,1.5,30.40,NW,309,0.0,0.0,46,0.00,,SKC,0.00,VWS V14.01,2013-01-28 06:01:00,
2013-01-28 01:03:00,18.9,1.5,30.40,NW,315,0.0,0.0,46,0.00,,SKC,0.00,VWS V14.01,2013-01-28 06:03:00,
2013-01-28 01:05:00,18.9,1.5,30.40,NW,309,0.0,0.0,46,0.00,,SKC,0.00,VWS V14.01,2013-01-28 06:05:00,
2013-01-28 01:06:00,18.8,1.5,30.40,NW,308,0.0,0.0,46,0.00,,SKC,0.00,VWS V14.01,2013-01-28 06:06:00,
2013-01-28 01:08:00,18.8,1.5,30.40,NW,308,0.0,0.0,46,0.00,,SKC,0.00,VWS V14.01,2013-01-28 06:08:00,
2013-01-28 01:10:00,18.8,1.5,30.40,NW,308,0.0,0.0,46,0.00,,SKC,0.00,VWS V14.01,2013-01-28 06:10:00,
2013-01-28 01:11:00,18.8,0.5,30.40,NW,309,0.0,0.0,44,0.00,,SKC,0.00,VWS V14.01,2013-01-28 06:11:00,
2013-01-28 01:12:00,18.8,0.5,30.40,NW,309,0.0,0.0,44,0.00,,SKC,0.00,VWS V14.01,2013-01-28 06:12:00,
2013-01-28 01:14:00,18.8,0.0,30.41,NW,309,0.0,0.0,43,0.00,,SKC,0.00,VWS V14.01,2013-01-28 06:14:00,
2013-01-28 01:15:00,18.8,0.0,30.41,NW,308,0.0,0.0,43,0.00,,SKC,0.00,VWS V14.01,2013-01-28 06:15:00,
2013-01-28 01:16:00,18.8,0.0,30.41,NW,308,0.0,0.0,43,0.00,,SKC,0.00,VWS V14.01,2013-01-28 06:16:00,
2013-01-28 01:17:00,18.8,0.5,30.41,NW,308,0.0,0.0,44,0.00,,SKC,0.00,VWS V14.01,2013-01-28 06:17:00,
2013-01-28 01:19:00,18.8,0.0,30.41,NW,309,0.0,0.0,43,0.00,,SKC,0.00,VWS V14.01,2013-01-28 06:19:00,
2013-01-28 01:20:00,18.8,0.0,30.41,NW,309,0.0,0.0,43,0.00,,SKC,0.00,VWS V14.01,2013-01-28 06:20:00,
2013-01-28 01:21:00,18.9,0.6,30.41,NW,309,0.0,0.0,44,0.00,,SKC,0.00,VWS V14.01,2013-01-28 06:21:00,
2013-01-28 01:22:00,18.9,0.6,30.41,NW,309,0.0,0.0,44,0.00,,SKC,0.00,VWS V14.01,2013-01-28 06:22:00,
2013-01-28 01:24:00,18.9,0.1,30.41,NW,308,0.0,0.0,43,0.00,,SKC,0.00,VWS V14.01,2013-01-28 06:24:00,
2013-01-28 01:25:00,18.9,0.1,30.41,NW,308,0.0,0.0,43,0.00,,SKC,0.00,VWS V14.01,2013-01-28 06:25:00,
2013-01-28 01:26:00,18.9,0.1,30.41,NW,308,0.0,0.0,43,0.00,,SKC,0.00,VWS V14.01,2013-01-28 06:26:00,
2013-01-28 01:27:00,19.1,0.3,30.41,NW,313,0.0,0.0,43,0.00,,SKC,0.00,VWS V14.01,2013-01-28 06:27:00,
2013-01-28 01:28:00,19.1,0.3,30.41,NW,309,0.0,0.0,43,0.00,,SKC,0.00,VWS V14.01,2013-01-28 06:28:00,
2013-01-28 01:29:00,19.1,0.3,30.42,NW,309,0.0,0.0,43,0.00,,SKC,0.00,VWS V14.01,2013-01-28 06:29:00,
2013-01-28 01:30:00,19.1,0.3,30.42,NW,311,0.0,0.0,43,0.00,,SKC,0.00,VWS V14.01,2013-01-28 06:30:00,
2013-01-28 01:32:00,19.2,-0.1,30.42,NW,309,0.0,0.0,42,0.00,,SKC,0.00,VWS V14.01,2013-01-28 06:32:00,
2013-01-28 01:33:00,19.2,-0.1,30.42,NW,308,0.0,0.0,42,0.00,,SKC,0.00,VWS V14.01,2013-01-28 06:33:00,
2013-01-28 01:34:00,19.4,-0.4,30.42,NW,309,0.0,0.0,41,0.00,,SKC,0.00,VWS V14.01,2013-01-28 06:34:00,
2013-01-28 01:35:00,19.4,-0.4,30.42,NW,309,0.0,0.0,41,0.00,,SKC,0.00,VWS V14.01,2013-01-28 06:35:00,
2013-01-28 01:37:00,19.4,0.1,30.42,NW,311,0.0,0.0,42,0.00,,SKC,0.00,VWS V14.01,2013-01-28 06:37:00,
2013-01-28 01:38:00,19.4,0.1,30.42,NW,311,0.0,0.0,42,0.00,,SKC,0.00,VWS V14.01,2013-01-28 06:38:00,
2013-01-28 01:39:00,19.4,0.1,30.42,NW,311,0.0,0.0,42,0.00,,SKC,0.00,VWS V14.01,2013-01-28 06:39:00,
2013-01-28 01:40:00,19.4,0.1,30.42,NW,309,0.0,0.0,42,0.00,,SKC,0.00,VWS V14.01,2013-01-28 06:40:00,
2013-01-28 01:43:00,19.4,0.6,30.42,NW,308,0.0,0.0,43,0.00,,SKC,0.00,VWS V14.01,2013-01-28 06:43:00,
2013-01-28 01:44:00,19.4,0.1,30.42,NW,308,0.0,0.0,42,0.00,,SKC,0.00,VWS V14.01,2013-01-28 06:44:00,
2013-01-28 01:45:00,19.4,0.1,30.42,NW,308,0.0,0.0,42,0.00,,SKC,0.00,VWS V14.01,2013-01-28 06:45:00,
2013-01-28 01:48:00,19.5,0.2,30.42,NW,308,0.0,0.0,42,0.00,,SKC,0.00,VWS V14.01,2013-01-28 06:48:00,
2013-01-28 01:49:00,19.5,0.2,30.42,NW,309,0.0,0.0,42,0.00,,SKC,0.00,VWS V14.01,2013-01-28 06:49:00,
2013-01-28 01:50:00,19.5,-0.4,30.42,NW,308,0.0,0.0,41,0.00,,SKC,0.00,VWS V14.01,2013-01-28 06:50:00,
2013-01-28 01:53:00,19.5,0.2,30.42,NW,309,0.0,0.0,42,0.00,,SKC,0.00,VWS V14.01,2013-01-28 06:53:00,
2013-01-28 01:54:00,19.5,0.7,30.42,NW,308,0.0,0.0,43,0.00,,SKC,0.00,VWS V14.01,2013-01-28 06:54:00,
2013-01-28 01:55:00,19.5,0.7,30.42,NW,308,0.0,0.0,43,0.00,,SKC,0.00,VWS V14.01,2013-01-28 06:55:00,
2013-01-28 01:58:00,19.5,0.2,30.42,NW,308,0.0,0.0,42,0.00,,SKC,0.00,VWS V14.01,2013-01-28 06:58:00,
2013-01-28 01:59:00,19.5,0.2,30.42,NW,308,0.0,0.0,42,0.00,,SKC,0.00,VWS V14.01,2013-01-28 06:59:00,
2013-01-28 02:00:00,19.5,0.2,30.42,NW,308,0.0,0.0,42,0.00,,SKC,0.00,VWS V14.01,2013-01-28 07:00:00,
2013-01-28 02:01:00,19.5,0.2,30.42,NW,306,0.0,0.0,42,0.00,,SKC,0.00,VWS V14.01,2013-01-28 07:01:00,
2013-01-28 02:03:00,19.4,0.6,30.42,NW,308,0.0,0.0,43,0.00,,SKC,0.00,VWS V14.01,2013-01-28 07:03:00,
2013-01-28 02:04:00,19.4,0.6,30.42,NW,308,0.0,0.0,43,0.00,,SKC,0.00,VWS V14.01,2013-01-28 07:04:00,
2013-01-28 02:05:00,19.4,0.6,30.42,NW,308,0.0,0.0,43,0.00,,SKC,0.00,VWS V14.01,2013-01-28 07:05:00,
2013-01-28 02:07:00,19.4,0.1,30.42,NW,308,0.0,0.0,42,0.00,,SKC,0.00,VWS V14.01,2013-01-28 07:07:00,
2013-01-28 02:08:00,19.4,0.1,30.42,NW,312,0.0,0.0,42,0.00,,SKC,0.00,VWS V14.01,2013-01-28 07:08:00,
2013-01-28 02:09:00,19.4,0.1,30.42,NW,309,0.0,0.0,42,0.00,,SKC,0.00,VWS V14.01,2013-01-28 07:09:00,
2013-01-28 02:10:00,19.4,0.1,30.42,NW,312,0.0,0.0,42,0.00,,SKC,0.00,VWS V14.01,2013-01-28 07:10:00,
2013-01-28 02:14:00,19.2,0.9,30.42,NW,308,0.0,0.0,44,0.00,,SKC,0.00,VWS V14.01,2013-01-28 07:14:00,
2013-01-28 02:15:00,19.1,1.3,30.42,NW,306,0.0,0.0,45,0.00,,SKC,0.00,VWS V14.01,2013-01-28 07:15:00,
2013-01-28 02:19:00,18.9,1.1,30.42,NW,308,0.0,0.0,45,0.00,,SKC,0.00,VWS V14.01,2013-01-28 07:19:00,
2013-01-28 02:20:00,18.9,1.1,30.42,NW,311,0.0,0.0,45,0.00,,SKC,0.00,VWS V14.01,2013-01-28 07:20:00,
2013-01-28 02:21:00,18.9,1.1,30.42,NW,308,0.0,0.0,45,0.00,,SKC,0.00,VWS V14.01,2013-01-28 07:21:00,
2013-01-28 02:24:00,18.8,0.5,30.42,NW,308,0.0,0.0,44,0.00,,SKC,0.00,VWS V14.01,2013-01-28 07:24:00,
2013-01-28 02:25:00,18.8,0.5,30.42,NW,308,0.0,0.0,44,0.00,,SKC,0.00,VWS V14.01,2013-01-28 07:25:00,
2013-01-28 02:26:00,18.6,0.8,30.42,NW,308,0.0,0.0,45,0.00,,SKC,0.00,VWS V14.01,2013-01-28 07:26:00,
2013-01-28 02:29:00,18.6,1.7,30.41,NW,308,0.0,0.0,47,0.00,,SKC,0.00,VWS V14.01,2013-01-28 07:29:00,
2013-01-28 02:30:00,18.6,1.7,30.41,NW,309,0.0,0.0,47,0.00,,SKC,0.00,VWS V14.01,2013-01-28 07:30:00,
2013-01-28 02:31:00,18.6,1.7,30.41,NW,309,0.0,0.0,47,0.00,,SKC,0.00,VWS V14.01,2013-01-28 07:31:00,
2013-01-28 02:32:00,18.4,1.5,30.41,NW,308,0.0,0.0,47,0.00,,SKC,0.00,VWS V14.01,2013-01-28 07:32:00,
2013-01-28 02:34:00,18.4,1.5,30.41,NW,309,0.0,0.0,47,0.00,,SKC,0.00,VWS V14.01,2013-01-28 07:34:00,
2013-01-28 02:35:00,18.4,1.5,30.41,NW,309,0.0,0.0,47,0.00,,SKC,0.00,VWS V14.01,2013-01-28 07:35:00,
2013-01-28 02:36:00,18.4,1.5,30.41,NW,308,0.0,0.0,47,0.00,,SKC,0.00,VWS V14.01,2013-01-28 07:36:00,
2013-01-28 02:37:00,18.4,1.5,30.41,NW,308,0.0,0.0,47,0.00,,SKC,0.00,VWS V14.01,2013-01-28 07:37:00,
2013-01-28 02:39:00,18.3,1.0,30.41,NW,306,0.0,0.0,46,0.00,,SKC,0.00,VWS V14.01,2013-01-28 07:39:00,
2013-01-28 02:40:00,18.3,1.0,30.41,NW,306,0.0,0.0,46,0.00,,SKC,0.00,VWS V14.01,2013-01-28 07:40:00,
2013-01-28 02:42:00,18.3,1.5,30.41,NW,308,0.0,0.0,47,0.00,,SKC,0.00,VWS V14.01,2013-01-28 07:42:00,
2013-01-28 02:44:00,18.3,1.5,30.41,NW,309,0.0,0.0,47,0.00,,SKC,0.00,VWS V14.01,2013-01-28 07:44:00,
2013-01-28 02:45:00,18.3,1.5,30.41,NW,313,0.0,0.0,47,0.00,,SKC,0.00,VWS V14.01,2013-01-28 07:45:00,
2013-01-28 02:47:00,18.4,1.1,30.41,NW,309,0.0,0.0,46,0.00,,SKC,0.00,VWS V14.01,2013-01-28 07:47:00,
2013-01-28 02:48:00,18.4,1.1,30.41,NW,309,0.0,0.0,46,0.00,,SKC,0.00,VWS V14.01,2013-01-28 07:48:00,
2013-01-28 02:49:00,18.4,1.1,30.41,NW,308,0.0,0.0,46,0.00,,SKC,0.00,VWS V14.01,2013-01-28 07:49:00,
2013-01-28 02:50:00,18.4,1.1,30.41,NW,309,0.0,0.0,46,0.00,,SKC,0.00,VWS V14.01,2013-01-28 07:50:00,
2013-01-28 02:53:00,18.6,2.2,30.41,NW,308,0.0,0.0,48,0.00,,SKC,0.00,VWS V14.01,2013-01-28 07:53:00,
2013-01-28 02:54:00,18.6,1.7,30.41,NW,309,0.0,0.0,47,0.00,,SKC,0.00,VWS V14.01,2013-01-28 07:54:00,
2013-01-28 02:55:00,18.6,1.7,30.41,NW,309,0.0,0.0,47,0.00,,SKC,0.00,VWS V14.01,2013-01-28 07:55:00,
2013-01-28 02:58:00,18.6,2.6,30.41,NW,308,0.0,0.0,49,0.00,,SKC,0.00,VWS V14.01,2013-01-28 07:58:00,
2013-01-28 02:59:00,18.6,2.6,30.40,NW,309,0.0,0.0,49,0.00,,SKC,0.00,VWS V14.01,2013-01-28 07:59:00,
2013-01-28 03:00:00,18.8,2.8,30.40,NW,309,0.0,0.0,49,0.00,,SKC,0.00,VWS V14.01,2013-01-28 08:00:00,
2013-01-28 03:03:00,18.8,0.5,30.40,NW,308,0.0,0.0,44,0.00,,SKC,0.00,VWS V14.01,2013-01-28 08:03:00,
2013-01-28 03:04:00,18.8,0.5,30.40,NW,308,0.0,0.0,44,0.00,,SKC,0.00,VWS V14.01,2013-01-28 08:04:00,
2013-01-28 03:05:00,18.9,2.0,30.40,NW,308,0.0,0.0,47,0.00,,SKC,0.00,VWS V14.01,2013-01-28 08:05:00,
2013-01-28 03:08:00,19.1,0.3,30.40,NW,311,0.0,2.0,43,0.00,,SKC,0.00,VWS V14.01,2013-01-28 08:08:00,
2013-01-28 03:09:00,19.1,0.3,30.40,NW,311,0.0,2.0,43,0.00,,SKC,0.00,VWS V14.01,2013-01-28 08:09:00,
2013-01-28 03:10:00,19.2,0.4,30.40,NW,309,0.0,0.0,43,0.00,,SKC,0.00,VWS V14.01,2013-01-28 08:10:00,
2013-01-28 03:11:00,19.2,0.4,30.40,NW,311,0.0,0.0,43,0.00,,SKC,0.00,VWS V14.01,2013-01-28 08:11:00,
2013-01-28 03:14:00,19.2,-0.1,30.40,NW,309,0.0,0.0,42,0.00,,SKC,0.00,VWS V14.01,2013-01-28 08:14:00,
2013-01-28 03:15:00,19.2,-0.1,30.40,NW,309,0.0,0.0,42,0.00,,SKC,0.00,VWS V14.01,2013-01-28 08:15:00,
2013-01-28 03:16:00,19.4,0.1,30.40,NW,309,0.0,0.0,42,0.00,,SKC,0.00,VWS V14.01,2013-01-28 08:16:00,
2013-01-28 03:19:00,19.5,0.2,30.40,NW,311,0.0,0.0,42,0.00,,SKC,0.00,VWS V14.01,2013-01-28 08:19:00,
2013-01-28 03:20:00,19.5,0.2,30.40,NW,308,0.0,0.0,42,0.00,,SKC,0.00,VWS V14.01,2013-01-28 08:20:00,
2013-01-28 03:21:00,19.5,0.2,30.40,NW,311,0.0,0.0,42,0.00,,SKC,0.00,VWS V14.01,2013-01-28 08:21:00,
2013-01-28 03:25:00,19.5,0.2,30.40,NW,308,0.0,0.0,42,0.00,,SKC,0.00,VWS V14.01,2013-01-28 08:25:00,
2013-01-28 03:26:00,19.5,0.2,30.40,NW,309,0.0,0.0,42,0.00,,SKC,0.00,VWS V14.01,2013-01-28 08:26:00,
2013-01-28 03:30:00,19.5,0.2,30.40,NW,308,0.0,0.0,42,0.00,,SKC,0.00,VWS V14.01,2013-01-28 08:30:00,
2013-01-28 03:31:00,19.5,0.2,30.40,NW,308,0.0,0.0,42,0.00,,SKC,0.00,VWS V14.01,2013-01-28 08:31:00,
2013-01-28 03:32:00,19.5,0.2,30.40,NW,308,0.0,0.0,42,0.00,,SKC,0.00,VWS V14.01,2013-01-28 08:32:00,
2013-01-28 03:35:00,19.5,0.7,30.40,NW,308,0.0,0.0,43,0.00,,SKC,0.00,VWS V14.01,2013-01-28 08:35:00,
2013-01-28 03:36:00,19.5,0.7,30.40,NW,308,0.0,0.0,43,0.00,,SKC,0.00,VWS V14.01,2013-01-28 08:36:00,
2013-01-28 03:37:00,19.5,1.1,30.40,NW,308,0.0,0.0,44,0.00,,SKC,0.00,VWS V14.01,2013-01-28 08:37:00,
2013-01-28 03:40:00,19.4,1.1,30.40,NW,308,0.0,0.0,44,0.00,,SKC,0.00,VWS V14.01,2013-01-28 08:40:00,
2013-01-28 03:41:00,19.4,1.1,30.40,NW,308,0.0,0.0,44,0.00,,SKC,0.00,VWS V14.01,2013-01-28 08:41:00,
2013-01-28 03:43:00,19.4,0.6,30.40,NW,308,0.0,0.0,43,0.00,,SKC,0.00,VWS V14.01,2013-01-28 08:43:00,
2013-01-28 03:45:00,19.4,2.0,30.40,NW,308,0.0,0.0,46,0.00,,SKC,0.00,VWS V14.01,2013-01-28 08:45:00,
2013-01-28 03:46:00,19.4,2.0,30.40,NW,308,0.0,0.0,46,0.00,,SKC,0.00,VWS V14.01,2013-01-28 08:46:00,
2013-01-28 03:48:00,19.2,1.4,30.40,NW,308,0.0,0.0,45,0.00,,SKC,0.00,VWS V14.01,2013-01-28 08:48:00,
2013-01-28 03:50:00,19.2,1.4,30.40,NW,312,0.0,0.0,45,0.00,,SKC,0.00,VWS V14.01,2013-01-28 08:50:00,
2013-01-28 03:51:00,19.2,0.9,30.40,NW,308,0.0,0.0,44,0.00,,SKC,0.00,VWS V14.01,2013-01-28 08:51:00,
2013-01-28 03:53:00,19.2,0.4,30.40,NW,308,0.0,0.0,43,0.00,,SKC,0.00,VWS V14.01,2013-01-28 08:53:00,
2013-01-28 03:55:00,19.2,0.4,30.40,NW,312,0.0,0.0,43,0.00,,SKC,0.00,VWS V14.01,2013-01-28 08:55:00,
2013-01-28 03:56:00,19.2,0.4,30.40,NW,308,0.0,0.0,43,0.00,,SKC,0.00,VWS V14.01,2013-01-28 08:56:00,
2013-01-28 03:58:00,19.2,1.8,30.39,NW,308,0.0,0.0,46,0.00,,SKC,0.00,VWS V14.01,2013-01-28 08:58:00,
2013-01-28 03:59:00,19.2,1.8,30.39,NW,309,0.0,0.0,46,0.00,,SKC,0.00,VWS V14.01,2013-01-28 08:59:00,
2013-01-28 04:00:00,19.2,1.8,30.39,NW,308,0.0,0.0,46,0.00,,SKC,0.00,VWS V14.01,2013-01-28 09:00:00,
2013-01-28 04:01:00,19.2,2.3,30.39,NW,308,0.0,0.0,47,0.00,,SKC,0.00,VWS V14.01,2013-01-28 09:01:00,
2013-01-28 04:02:00,19.2,1.4,30.39,NW,309,0.0,0.0,45,0.00,,SKC,0.00,VWS V14.01,2013-01-28 09:02:00,
2013-01-28 04:04:00,19.2,1.4,30.39,NW,308,0.0,0.0,45,0.00,,SKC,0.00,VWS V14.01,2013-01-28 09:04:00,
2013-01-28 04:05:00,19.1,1.3,30.39,NW,308,0.0,0.0,45,0.00,,SKC,0.00,VWS V14.01,2013-01-28 09:05:00,
2013-01-28 04:06:00,19.1,0.3,30.39,NW,308,0.0,0.0,43,0.00,,SKC,0.00,VWS V14.01,2013-01-28 09:06:00,
2013-01-28 04:07:00,19.1,0.8,30.39,NW,308,0.0,0.0,44,0.00,,SKC,0.00,VWS V14.01,2013-01-28 09:07:00,
2013-01-28 04:09:00,19.1,0.8,30.39,NW,309,0.0,0.0,44,0.00,,SKC,0.00,VWS V14.01,2013-01-28 09:09:00,
2013-01-28 04:10:00,19.1,0.8,30.39,NW,312,0.0,0.0,44,0.00,,SKC,0.00,VWS V14.01,2013-01-28 09:10:00,
2013-01-28 04:11:00,19.1,0.8,30.39,NW,308,0.0,0.0,44,0.00,,SKC,0.00,VWS V14.01,2013-01-28 09:11:00,
2013-01-28 04:12:00,19.1,0.8,30.39,NW,308,0.0,0.0,44,0.00,,SKC,0.00,VWS V14.01,2013-01-28 09:12:00,
2013-01-28 04:14:00,18.9,0.6,30.39,NW,308,0.0,0.0,44,0.00,,SKC,0.00,VWS V14.01,2013-01-28 09:14:00,
2013-01-28 04:15:00,18.9,0.6,30.39,NW,308,0.0,0.0,44,0.00,,SKC,0.00,VWS V14.01,2013-01-28 09:15:00,
2013-01-28 04:16:00,18.9,0.1,30.39,NW,309,0.0,0.0,43,0.00,,SKC,0.00,VWS V14.01,2013-01-28 09:16:00,
2013-01-28 04:17:00,18.9,0.1,30.39,NW,309,0.0,0.0,43,0.00,,SKC,0.00,VWS V14.01,2013-01-28 09:17:00,
2013-01-28 04:20:00,18.8,-0.5,30.39,NW,309,0.0,0.0,42,0.00,,SKC,0.00,VWS V14.01,2013-01-28 09:20:00,
2013-01-28 04:21:00,18.8,-0.5,30.39,NW,308,0.0,0.0,42,0.00,,SKC,0.00,VWS V14.01,2013-01-28 09:21:00,
2013-01-28 04:22:00,18.9,-0.4,30.39,NW,308,0.0,0.0,42,0.00,,SKC,0.00,VWS V14.01,2013-01-28 09:22:00,
2013-01-28 04:25:00,18.9,-0.9,30.39,NW,308,0.0,0.0,41,0.00,,SKC,0.00,VWS V14.01,2013-01-28 09:25:00,
2013-01-28 04:27:00,18.9,-0.9,30.39,NW,308,0.0,0.0,41,0.00,,SKC,0.00,VWS V14.01,2013-01-28 09:27:00,
2013-01-28 04:30:00,18.8,-1.0,30.39,NW,308,0.0,0.0,41,0.00,,SKC,0.00,VWS V14.01,2013-01-28 09:30:00,
2013-01-28 04:31:00,18.9,-0.9,30.39,NW,308,0.0,0.0,41,0.00,,SKC,0.00,VWS V14.01,2013-01-28 09:31:00,
2013-01-28 04:32:00,18.9,-0.9,30.39,NW,308,0.0,0.0,41,0.00,,SKC,0.00,VWS V14.01,2013-01-28 09:32:00,
2013-01-28 04:33:00,18.9,-0.9,30.39,NW,308,0.0,0.0,41,0.00,,SKC,0.00,VWS V14.01,2013-01-28 09:33:00,
2013-01-28 04:35:00,18.9,-0.9,30.39,NW,308,0.0,0.0,41,0.00,,SKC,0.00,VWS V14.01,2013-01-28 09:35:00,
2013-01-28 04:36:00,18.9,-0.9,30.39,NW,308,0.0,0.0,41,0.00,,SKC,0.00,VWS V14.01,2013-01-28 09:36:00,
2013-01-28 04:38:00,18.9,-0.9,30.39,NW,309,0.0,0.0,41,0.00,,SKC,0.00,VWS V14.01,2013-01-28 09:38:00,
2013-01-28 04:40:00,18.9,-0.4,30.39,NW,308,0.0,0.0,42,0.00,,SKC,0.00,VWS V14.01,2013-01-28 09:40:00,
2013-01-28 04:41:00,18.9,-0.4,30.39,NW,309,0.0,0.0,42,0.00,,SKC,0.00,VWS V14.01,2013-01-28 09:41:00,
2013-01-28 04:43:00,18.9,0.1,30.39,NW,308,0.0,0.0,43,0.00,,SKC,0.00,VWS V14.01,2013-01-28 09:43:00,
2013-01-28 04:45:00,18.9,0.1,30.39,NW,308,0.0,0.0,43,0.00,,SKC,0.00,VWS V14.01,2013-01-28 09:45:00,
2013-01-28 04:46:00,18.9,0.6,30.39,NW,309,0.0,0.0,44,0.00,,SKC,0.00,VWS V14.01,2013-01-28 09:46:00,
2013-01-28 04:48:00,18.8,0.0,30.39,NW,308,0.0,0.0,43,0.00,,SKC,0.00,VWS V14.01,2013-01-28 09:48:00,
2013-01-28 04:50:00,18.8,-0.5,30.39,NW,308,0.0,0.0,42,0.00,,SKC,0.00,VWS V14.01,2013-01-28 09:50:00,
2013-01-28 04:51:00,18.8,-0.5,30.39,NW,308,0.0,0.0,42,0.00,,SKC,0.00,VWS V14.01,2013-01-28 09:51:00,
2013-01-28 04:52:00,18.8,-0.5,30.39,NW,308,0.0,0.0,42,0.00,,SKC,0.00,VWS V14.01,2013-01-28 09:52:00,
2013-01-28 04:53:00,18.8,-0.5,30.39,NW,308,0.0,0.0,42,0.00,,SKC,0.00,VWS V14.01,2013-01-28 09:53:00,
2013-01-28 04:55:00,18.8,0.0,30.39,NW,309,0.0,0.0,43,0.00,,SKC,0.00,VWS V14.01,2013-01-28 09:55:00,
2013-01-28 04:56:00,18.8,0.5,30.39,NW,309,0.0,0.0,44,0.00,,SKC,0.00,VWS V14.01,2013-01-28 09:56:00,
2013-01-28 04:57:00,18.8,0.5,30.39,NW,308,0.0,0.0,44,0.00,,SKC,0.00,VWS V14.01,2013-01-28 09:57:00,
2013-01-28 04:59:00,18.8,1.5,30.39,NW,309,0.0,0.0,46,0.00,,SKC,0.00,VWS V14.01,2013-01-28 09:59:00,
2013-01-28 05:00:00,18.6,1.3,30.39,NW,308,0.0,0.0,46,0.00,,SKC,0.00,VWS V14.01,2013-01-28 10:00:00,
2013-01-28 05:01:00,18.6,1.3,30.39,NW,309,0.0,0.0,46,0.00,,SKC,0.00,VWS V14.01,2013-01-28 10:01:00,
2013-01-28 05:02:00,18.6,1.7,30.39,NW,308,0.0,0.0,47,0.00,,SKC,0.00,VWS V14.01,2013-01-28 10:02:00,
2013-01-28 05:04:00,18.6,1.7,30.39,NW,308,0.0,0.0,47,0.00,,SKC,0.00,VWS V14.01,2013-01-28 10:04:00,
2013-01-28 05:05:00,18.4,2.0,30.39,NW,308,0.0,0.0,48,0.00,,SKC,0.00,VWS V14.01,2013-01-28 10:05:00,
2013-01-28 05:07:00,18.4,2.0,30.39,NW,308,0.0,0.0,48,0.00,,SKC,0.00,VWS V14.01,2013-01-28 10:07:00,
2013-01-28 05:09:00,18.3,2.3,30.39,NW,308,0.0,0.0,49,0.00,,SKC,0.00,VWS V14.01,2013-01-28 10:09:00,
2013-01-28 05:10:00,18.3,2.3,30.39,NW,309,0.0,0.0,49,0.00,,SKC,0.00,VWS V14.01,2013-01-28 10:10:00,
2013-01-28 05:12:00,18.3,2.3,30.39,NW,308,0.0,0.0,49,0.00,,SKC,0.00,VWS V14.01,2013-01-28 10:12:00,
2013-01-28 05:14:00,18.1,2.2,30.39,NW,309,0.0,0.0,49,0.00,,SKC,0.00,VWS V14.01,2013-01-28 10:14:00,
2013-01-28 05:15:00,18.1,2.2,30.39,NW,309,0.0,0.0,49,0.00,,SKC,0.00,VWS V14.01,2013-01-28 10:15:00,
2013-01-28 05:16:00,18.1,2.2,30.39,NW,309,0.0,0.0,49,0.00,,SKC,0.00,VWS V14.01,2013-01-28 10:16:00,
2013-01-28 05:17:00,18.1,2.2,30.39,NW,308,0.0,0.0,49,0.00,,SKC,0.00,VWS V14.01,2013-01-28 10:17:00,
2013-01-28 05:18:00,18.1,2.2,30.39,NW,308,0.0,0.0,49,0.00,,SKC,0.00,VWS V14.01,2013-01-28 10:18:00,
2013-01-28 05:20:00,18.0,2.1,30.39,NW,308,0.0,0.0,49,0.00,,SKC,0.00,VWS V14.01,2013-01-28 10:20:00,
2013-01-28 05:22:00,18.0,2.5,30.39,NW,308,0.0,0.0,50,0.00,,SKC,0.00,VWS V14.01,2013-01-28 10:22:00,
2013-01-28 05:23:00,18.0,2.5,30.39,NW,308,0.0,0.0,50,0.00,,SKC,0.00,VWS V14.01,2013-01-28 10:23:00,
2013-01-28 05:25:00,18.0,2.5,30.39,NW,309,0.0,0.0,50,0.00,,SKC,0.00,VWS V14.01,2013-01-28 10:25:00,
2013-01-28 05:27:00,17.8,2.8,30.39,NW,309,0.0,0.0,51,0.00,,SKC,0.00,VWS V14.01,2013-01-28 10:27:00,
2013-01-28 05:28:00,17.8,2.8,30.39,NW,309,0.0,0.0,51,0.00,,SKC,0.00,VWS V14.01,2013-01-28 10:28:00,
2013-01-28 05:30:00,17.8,2.8,30.39,NW,309,0.0,0.0,51,0.00,,SKC,0.00,VWS V14.01,2013-01-28 10:30:00,
2013-01-28 05:33:00,17.7,3.1,30.39,NW,309,0.0,0.0,52,0.00,,SKC,0.00,VWS V14.01,2013-01-28 10:33:00,
2013-01-28 05:35:00,17.7,3.5,30.39,NW,309,0.0,0.0,53,0.00,,SKC,0.00,VWS V14.01,2013-01-28 10:35:00,
2013-01-28 05:38:00,17.5,3.3,30.39,NW,309,0.0,0.0,53,0.00,,SKC,0.00,VWS V14.01,2013-01-28 10:38:00,
2013-01-28 05:39:00,17.5,3.3,30.39,NW,309,0.0,0.0,53,0.00,,SKC,0.00,VWS V14.01,2013-01-28 10:39:00,
2013-01-28 05:40:00,17.5,3.3,30.39,NW,308,0.0,0.0,53,0.00,,SKC,0.00,VWS V14.01,2013-01-28 10:40:00,
2013-01-28 05:41:00,17.5,3.3,30.39,NW,309,0.0,0.0,53,0.00,,SKC,0.00,VWS V14.01,2013-01-28 10:41:00,
2013-01-28 05:43:00,17.5,3.7,30.39,NW,309,0.0,0.0,54,0.00,,SKC,0.00,VWS V14.01,2013-01-28 10:43:00,
2013-01-28 05:44:00,17.5,3.7,30.39,NW,308,0.0,0.0,54,0.00,,SKC,0.00,VWS V14.01,2013-01-28 10:44:00,
2013-01-28 05:45:00,17.5,3.7,30.39,NW,309,0.0,0.0,54,0.00,,SKC,0.00,VWS V14.01,2013-01-28 10:45:00,
2013-01-28 05:46:00,17.5,4.1,30.39,NW,309,0.0,0.0,55,0.00,,SKC,0.00,VWS V14.01,2013-01-28 10:46:00,
2013-01-28 05:48:00,17.5,3.7,30.39,NW,308,0.0,0.0,54,0.00,,SKC,0.00,VWS V14.01,2013-01-28 10:48:00,
2013-01-28 05:49:00,17.5,3.7,30.39,NW,308,0.0,0.0,54,0.00,,SKC,0.00,VWS V14.01,2013-01-28 10:49:00,
2013-01-28 05:50:00,17.3,3.5,30.39,NW,309,0.0,0.0,54,0.00,,SKC,0.00,VWS V14.01,2013-01-28 10:50:00,
2013-01-28 05:51:00,17.3,3.5,30.39,NW,308,0.0,0.0,54,0.00,,SKC,0.00,VWS V14.01,2013-01-28 10:51:00,
2013-01-28 05:53:00,17.3,3.5,30.39,NW,309,0.0,0.0,54,0.00,,SKC,0.00,VWS V14.01,2013-01-28 10:53:00,
2013-01-28 05:54:00,17.3,5.1,30.39,NW,308,0.0,0.0,58,0.00,,SKC,0.00,VWS V14.01,2013-01-28 10:54:00,
2013-01-28 05:55:00,17.3,5.4,30.39,NW,308,0.0,0.0,59,0.00,,SKC,0.00,VWS V14.01,2013-01-28 10:55:00,
2013-01-28 05:56:00,17.3,5.4,30.39,NW,309,0.0,0.0,59,0.00,,SKC,0.00,VWS V14.01,2013-01-28 10:56:00,
2013-01-28 05:59:00,17.3,5.1,30.39,NW,312,0.0,0.0,58,0.00,,SKC,0.00,VWS V14.01,2013-01-28 10:59:00,
2013-01-28 06:00:00,17.2,5.0,30.39,NW,308,0.0,0.0,58,0.00,,SKC,0.00,VWS V14.01,2013-01-28 11:00:00,
2013-01-28 06:02:00,17.2,4.6,30.39,NW,309,0.0,0.0,57,0.00,,SKC,0.00,VWS V14.01,2013-01-28 11:02:00,
2013-01-28 06:04:00,17.2,4.2,30.39,NW,309,0.0,0.0,56,0.00,,SKC,0.00,VWS V14.01,2013-01-28 11:04:00,
2013-01-28 06:05:00,17.2,3.8,30.39,NW,313,0.0,0.0,55,0.00,,SKC,0.00,VWS V14.01,2013-01-28 11:05:00,
2013-01-28 06:07:00,17.0,3.2,30.39,NW,308,0.0,0.0,54,0.00,,SKC,0.00,VWS V14.01,2013-01-28 11:07:00,
2013-01-28 06:09:00,17.2,3.4,30.39,NW,308,0.0,0.0,54,0.00,,SKC,0.00,VWS V14.01,2013-01-28 11:09:00,
2013-01-28 06:10:00,17.2,3.8,30.39,NW,309,0.0,0.0,55,0.00,,SKC,0.00,VWS V14.01,2013-01-28 11:10:00,
2013-01-28 06:11:00,17.2,3.8,30.39,NW,309,0.0,0.0,55,0.00,,SKC,0.00,VWS V14.01,2013-01-28 11:11:00,
2013-01-28 06:12:00,17.2,3.8,30.39,NW,309,0.0,0.0,55,0.00,,SKC,0.00,VWS V14.01,2013-01-28 11:12:00,
2013-01-28 06:14:00,17.2,3.8,30.38,NW,312,0.0,0.0,55,0.00,,SKC,0.00,VWS V14.01,2013-01-28 11:14:00,
2013-01-28 06:15:00,18.4,4.6,30.38,NW,308,0.0,0.0,54,0.00,,SKC,0.00,VWS V14.01,2013-01-28 11:15:00,
2013-01-28 06:16:00,17.2,3.8,30.38,NW,309,0.0,0.0,55,0.00,,SKC,0.00,VWS V14.01,2013-01-28 11:16:00,
2013-01-28 06:17:00,17.2,4.2,30.38,NW,309,0.0,0.0,56,0.00,,SKC,0.00,VWS V14.01,2013-01-28 11:17:00,
2013-01-28 06:19:00,17.2,4.2,30.38,NW,312,0.0,0.0,56,0.00,,SKC,0.00,VWS V14.01,2013-01-28 11:19:00,
2013-01-28 06:20:00,17.2,4.2,30.38,NW,312,0.0,0.0,56,0.00,,SKC,0.00,VWS V14.01,2013-01-28 11:20:00,
2013-01-28 06:21:00,17.2,4.2,30.38,NW,309,0.0,0.0,56,0.00,,SKC,0.00,VWS V14.01,2013-01-28 11:21:00,
2013-01-28 06:22:00,17.2,4.2,30.38,NW,308,0.0,0.0,56,0.00,,SKC,0.00,VWS V14.01,2013-01-28 11:22:00,
2013-01-28 06:25:00,17.3,4.3,30.38,NW,308,0.0,0.0,56,0.00,,SKC,0.00,VWS V14.01,2013-01-28 11:25:00,
2013-01-28 06:26:00,17.3,4.3,30.38,NW,309,0.0,0.0,56,0.00,,SKC,0.00,VWS V14.01,2013-01-28 11:26:00,
2013-01-28 06:27:00,17.3,4.3,30.38,NW,309,0.0,0.0,56,0.00,,SKC,0.00,VWS V14.01,2013-01-28 11:27:00,
2013-01-28 06:30:00,17.3,4.3,30.38,NW,308,0.0,0.0,56,0.00,,SKC,0.00,VWS V14.01,2013-01-28 11:30:00,
2013-01-28 06:31:00,17.5,4.5,30.38,NW,309,0.0,0.0,56,0.00,,SKC,0.00,VWS V14.01,2013-01-28 11:31:00,
2013-01-28 06:32:00,17.5,4.5,30.38,NW,309,0.0,0.0,56,0.00,,SKC,0.00,VWS V14.01,2013-01-28 11:32:00,
2013-01-28 06:33:00,17.5,4.5,30.38,NW,308,0.0,0.0,56,0.00,,SKC,0.00,VWS V14.01,2013-01-28 11:33:00,
2013-01-28 06:35:00,17.5,4.1,30.38,NW,308,0.0,0.0,55,0.00,,SKC,0.00,VWS V14.01,2013-01-28 11:35:00,
2013-01-28 06:37:00,17.5,4.1,30.38,NW,308,0.0,0.0,55,0.00,,SKC,0.00,VWS V14.01,2013-01-28 11:37:00,
2013-01-28 06:38:00,17.5,4.1,30.38,NW,309,0.0,0.0,55,0.00,,SKC,0.00,VWS V14.01,2013-01-28 11:38:00,
2013-01-28 06:40:00,17.7,4.3,30.38,NW,309,0.0,0.0,55,0.00,,SKC,0.00,VWS V14.01,2013-01-28 11:40:00,
2013-01-28 06:41:00,17.7,4.3,30.38,NW,309,0.0,0.0,55,0.00,,SKC,0.00,VWS V14.01,2013-01-28 11:41:00,
2013-01-28 06:42:00,17.7,4.3,30.38,NW,308,0.0,0.0,55,0.00,,SKC,0.00,VWS V14.01,2013-01-28 11:42:00,
2013-01-28 06:43:00,17.7,4.3,30.38,NW,309,0.0,0.0,55,0.00,,SKC,0.00,VWS V14.01,2013-01-28 11:43:00,
2013-01-28 06:45:00,17.7,4.3,30.38,NW,309,0.0,0.0,55,0.00,,SKC,0.00,VWS V14.01,2013-01-28 11:45:00,
2013-01-28 06:46:00,17.8,4.8,30.38,NW,309,0.0,0.0,56,0.00,,SKC,0.00,VWS V14.01,2013-01-28 11:46:00,
2013-01-28 06:47:00,17.8,4.8,30.38,NW,308,0.0,0.0,56,0.00,,SKC,0.00,VWS V14.01,2013-01-28 11:47:00,
2013-01-28 06:48:00,17.8,4.8,30.38,NW,309,0.0,0.0,56,0.00,,SKC,0.00,VWS V14.01,2013-01-28 11:48:00,
2013-01-28 06:49:00,17.8,4.8,30.38,NW,309,0.0,0.0,56,0.00,,SKC,0.00,VWS V14.01,2013-01-28 11:49:00,
2013-01-28 06:50:00,20.3,5.9,30.37,NW,308,0.0,0.0,53,0.00,,SKC,0.00,VWS V14.01,2013-01-28 11:50:00,
2013-01-28 06:51:00,17.8,4.8,30.38,NW,313,0.0,0.0,56,0.00,,SKC,0.00,VWS V14.01,2013-01-28 11:51:00,
2013-01-28 06:53:00,17.8,4.4,30.38,NW,308,0.0,0.0,55,0.00,,SKC,0.00,VWS V14.01,2013-01-28 11:53:00,
2013-01-28 06:54:00,18.0,4.6,30.38,NW,309,0.0,0.0,55,0.00,,SKC,0.00,VWS V14.01,2013-01-28 11:54:00,
2013-01-28 06:55:00,20.5,5.7,30.37,NW,309,0.0,0.0,52,0.00,,SKC,0.00,VWS V14.01,2013-01-28 11:55:00,
2013-01-28 06:56:00,18.0,4.6,30.38,NW,308,0.0,0.0,55,0.00,,SKC,0.00,VWS V14.01,2013-01-28 11:56:00,
2013-01-28 06:59:00,18.0,4.6,30.38,NW,311,0.0,0.0,55,0.00,,SKC,0.00,VWS V14.01,2013-01-28 11:59:00,
2013-01-28 07:00:00,20.6,6.2,30.38,NW,308,0.0,0.0,53,0.00,,SKC,0.00,VWS V14.01,2013-01-28 12:00:00,
2013-01-28 07:01:00,18.0,5.0,30.38,NW,309,0.0,0.0,56,0.00,,SKC,0.00,VWS V14.01,2013-01-28 12:01:00,
2013-01-28 07:04:00,18.1,5.1,30.38,NW,309,0.0,0.0,56,0.00,,SKC,0.00,VWS V14.01,2013-01-28 12:04:00,
2013-01-28 07:05:00,18.1,5.1,30.38,NW,308,0.0,0.0,56,0.00,,SKC,0.00,VWS V14.01,2013-01-28 12:05:00,
2013-01-28 07:06:00,18.1,4.3,30.38,NW,309,0.0,0.0,54,0.00,,SKC,0.00,VWS V14.01,2013-01-28 12:06:00,
2013-01-28 07:09:00,18.1,4.3,30.38,NW,309,0.0,0.0,54,0.00,,SKC,0.00,VWS V14.01,2013-01-28 12:09:00,
2013-01-28 07:10:00,18.3,4.8,30.38,NW,309,0.0,0.0,55,0.00,,SKC,0.00,VWS V14.01,2013-01-28 12:10:00,
2013-01-28 07:11:00,18.3,4.8,30.38,NW,309,0.0,0.0,55,0.00,,SKC,0.00,VWS V14.01,2013-01-28 12:11:00,
2013-01-28 07:14:00,18.4,4.6,30.38,NW,308,0.0,0.0,54,0.00,,SKC,0.00,VWS V14.01,2013-01-28 12:14:00,
2013-01-28 07:15:00,18.4,4.6,30.38,NW,308,0.0,0.0,54,0.00,,SKC,0.00,VWS V14.01,2013-01-28 12:15:00,
2013-01-28 07:16:00,18.4,4.6,30.38,NW,308,0.0,0.0,54,0.00,,SKC,0.00,VWS V14.01,2013-01-28 12:16:00,
2013-01-28 07:17:00,18.6,5.1,30.38,NW,308,0.0,0.0,55,0.00,,SKC,0.00,VWS V14.01,2013-01-28 12:17:00,
2013-01-28 07:19:00,18.8,5.3,30.38,NW,309,0.0,0.0,55,0.00,,SKC,0.00,VWS V14.01,2013-01-28 12:19:00,
2013-01-28 07:20:00,18.8,5.3,30.38,NW,309,0.0,0.0,55,0.00,,SKC,0.00,VWS V14.01,2013-01-28 12:20:00,
2013-01-28 07:21:00,18.9,5.4,30.38,NW,312,0.0,0.0,55,0.00,,SKC,0.00,VWS V14.01,2013-01-28 12:21:00,
2013-01-28 07:22:00,18.9,5.4,30.38,NW,309,0.0,0.0,55,0.00,,SKC,0.00,VWS V14.01,2013-01-28 12:22:00,
2013-01-28 07:24:00,19.1,6.0,30.38,NW,309,0.0,0.0,56,0.00,,SKC,0.00,VWS V14.01,2013-01-28 12:24:00,
2013-01-28 07:25:00,19.1,6.0,30.38,NW,309,0.0,0.0,56,0.00,,SKC,0.00,VWS V14.01,2013-01-28 12:25:00,
2013-01-28 07:27:00,19.2,5.7,30.38,NW,309,0.0,0.0,55,0.00,,SKC,0.00,VWS V14.01,2013-01-28 12:27:00,
2013-01-28 07:29:00,19.2,4.9,30.38,NW,309,0.0,0.0,53,0.00,,SKC,0.00,VWS V14.01,2013-01-28 12:29:00,
2013-01-28 07:30:00,19.2,4.9,30.38,NW,309,0.0,0.0,53,0.00,,SKC,0.00,VWS V14.01,2013-01-28 12:30:00,
2013-01-28 07:32:00,19.4,4.7,30.38,NW,309,0.0,0.0,52,0.00,,SKC,0.00,VWS V14.01,2013-01-28 12:32:00,
2013-01-28 07:35:00,19.5,4.8,30.38,NW,308,0.0,0.0,52,0.00,,SKC,0.00,VWS V14.01,2013-01-28 12:35:00,
2013-01-28 07:37:00,19.7,4.9,30.38,NW,309,0.0,0.0,52,0.00,,SKC,0.00,VWS V14.01,2013-01-28 12:37:00,
2013-01-28 07:38:00,19.7,4.9,30.38,NW,311,0.0,0.0,52,0.00,,SKC,0.00,VWS V14.01,2013-01-28 12:38:00,
2013-01-28 07:40:00,19.9,4.7,30.38,NW,309,0.0,0.0,51,0.00,,SKC,0.00,VWS V14.01,2013-01-28 12:40:00,
2013-01-28 07:42:00,20.0,4.4,30.38,NW,309,0.0,0.0,50,0.00,,SKC,0.00,VWS V14.01,2013-01-28 12:42:00,
2013-01-28 07:43:00,20.0,4.8,30.38,NW,309,0.0,0.0,51,0.00,,SKC,0.00,VWS V14.01,2013-01-28 12:43:00,
2013-01-28 07:45:00,20.2,5.4,30.37,NW,309,0.0,0.0,52,0.00,,SKC,0.00,VWS V14.01,2013-01-28 12:45:00,
2013-01-28 07:48:00,20.3,5.5,30.37,NW,309,0.0,0.0,52,0.00,,SKC,0.00,VWS V14.01,2013-01-28 12:48:00,
2013-01-28 07:49:00,20.3,5.9,30.37,NW,308,0.0,0.0,53,0.00,,SKC,0.00,VWS V14.01,2013-01-28 12:49:00,
2013-01-28 07:50:00,20.3,5.9,30.37,NW,308,0.0,0.0,53,0.00,,SKC,0.00,VWS V14.01,2013-01-28 12:50:00,
2013-01-28 07:51:00,20.5,6.1,30.37,NW,309,0.0,0.0,53,0.00,,SKC,0.00,VWS V14.01,2013-01-28 12:51:00,
2013-01-28 07:53:00,20.5,5.7,30.37,NW,309,0.0,0.0,52,0.00,,SKC,0.00,VWS V14.01,2013-01-28 12:53:00,
2013-01-28 07:54:00,20.5,5.7,30.37,NW,308,0.0,0.0,52,0.00,,SKC,0.00,VWS V14.01,2013-01-28 12:54:00,
2013-01-28 07:55:00,20.5,5.7,30.37,NW,309,0.0,0.0,52,0.00,,SKC,0.00,VWS V14.01,2013-01-28 12:55:00,
2013-01-28 07:56:00,20.6,5.8,30.37,NW,308,0.0,0.0,52,0.00,,SKC,0.00,VWS V14.01,2013-01-28 12:56:00,
2013-01-28 07:58:00,20.6,5.8,30.37,NW,309,0.0,0.0,52,0.00,,SKC,0.00,VWS V14.01,2013-01-28 12:58:00,
2013-01-28 07:59:00,20.6,6.2,30.38,NW,308,0.0,0.0,53,0.00,,SKC,0.00,VWS V14.01,2013-01-28 12:59:00,
2013-01-28 08:00:00,24.7,3.8,30.37,NW,308,0.0,0.0,40,0.00,,SKC,0.00,VWS V14.01,2013-01-28 13:00:00,
2013-01-28 08:01:00,20.8,6.4,30.38,NW,309,0.0,0.0,53,0.00,,SKC,0.00,VWS V14.01,2013-01-28 13:01:00,
2013-01-28 08:03:00,20.8,6.0,30.38,NW,308,0.0,0.0,52,0.00,,SKC,0.00,VWS V14.01,2013-01-28 13:03:00,
2013-01-28 08:04:00,20.8,6.0,30.38,NW,308,0.0,0.0,52,0.00,,SKC,0.00,VWS V14.01,2013-01-28 13:04:00,
2013-01-28 08:05:00,20.8,6.0,30.38,NW,308,0.0,0.0,52,0.00,,SKC,0.00,VWS V14.01,2013-01-28 13:05:00,
2013-01-28 08:07:00,21.0,6.2,30.38,NW,308,0.0,0.0,52,0.00,,SKC,0.00,VWS V14.01,2013-01-28 13:07:00,
2013-01-28 08:08:00,21.0,6.2,30.38,NW,308,0.0,0.0,52,0.00,,SKC,0.00,VWS V14.01,2013-01-28 13:08:00,
2013-01-28 08:09:00,21.1,6.7,30.38,NW,308,0.0,0.0,53,0.00,,SKC,0.00,VWS V14.01,2013-01-28 13:09:00,
2013-01-28 08:10:00,21.1,6.7,30.38,NW,308,0.0,0.0,53,0.00,,SKC,0.00,VWS V14.01,2013-01-28 13:10:00,
2013-01-28 08:12:00,21.3,6.8,30.38,NW,308,0.0,0.0,53,0.00,,SKC,0.00,VWS V14.01,2013-01-28 13:12:00,
2013-01-28 08:13:00,21.3,6.8,30.38,NW,309,0.0,0.0,53,0.00,,SKC,0.00,VWS V14.01,2013-01-28 13:13:00,
2013-01-28 08:14:00,21.3,6.8,30.38,NW,308,0.0,0.0,53,0.00,,SKC,0.00,VWS V14.01,2013-01-28 13:14:00,
2013-01-28 08:15:00,21.3,6.8,30.38,NW,306,0.0,0.0,53,0.00,,SKC,0.00,VWS V14.01,2013-01-28 13:15:00,
2013-01-28 08:17:00,21.6,6.7,30.38,NW,308,0.0,0.0,52,0.00,,SKC,0.00,VWS V14.01,2013-01-28 13:17:00,
2013-01-28 08:19:00,21.6,6.7,30.38,NW,309,0.0,0.0,52,0.00,,SKC,0.00,VWS V14.01,2013-01-28 13:19:00,
2013-01-28 08:20:00,21.8,6.9,30.38,NW,309,0.0,0.0,52,0.00,,SKC,0.00,VWS V14.01,2013-01-28 13:20:00,
2013-01-28 08:22:00,21.9,7.0,30.38,NW,309,0.0,0.0,52,0.00,,SKC,0.00,VWS V14.01,2013-01-28 13:22:00,
2013-01-28 08:24:00,21.9,7.0,30.38,NW,309,0.0,0.0,52,0.00,,SKC,0.00,VWS V14.01,2013-01-28 13:24:00,
2013-01-28 08:25:00,21.9,7.0,30.38,NW,309,0.0,0.0,52,0.00,,SKC,0.00,VWS V14.01,2013-01-28 13:25:00,
2013-01-28 08:27:00,22.1,7.2,30.38,NW,308,0.0,0.0,52,0.00,,SKC,0.00,VWS V14.01,2013-01-28 13:27:00,
2013-01-28 08:29:00,22.1,7.2,30.37,NW,308,0.0,0.0,52,0.00,,SKC,0.00,VWS V14.01,2013-01-28 13:29:00,
2013-01-28 08:30:00,22.1,7.2,30.37,NW,308,0.0,0.0,52,0.00,,SKC,0.00,VWS V14.01,2013-01-28 13:30:00,
2013-01-28 08:32:00,22.5,7.5,30.37,NW,308,0.0,0.0,52,0.00,,SKC,0.00,VWS V14.01,2013-01-28 13:32:00,
2013-01-28 08:34:00,22.9,7.9,30.37,NW,308,0.0,0.0,52,0.00,,SKC,0.00,VWS V14.01,2013-01-28 13:34:00,
2013-01-28 08:35:00,22.9,7.9,30.37,NW,308,0.0,0.0,52,0.00,,SKC,0.00,VWS V14.01,2013-01-28 13:35:00,
2013-01-28 08:37:00,23.0,8.0,30.37,NW,308,0.0,0.0,52,0.00,,SKC,0.00,VWS V14.01,2013-01-28 13:37:00,
2013-01-28 08:39:00,23.5,8.5,30.37,NW,308,0.0,0.0,52,0.00,,SKC,0.00,VWS V14.01,2013-01-28 13:39:00,
2013-01-28 08:40:00,23.5,8.5,30.37,NW,308,0.0,0.0,52,0.00,,SKC,0.00,VWS V14.01,2013-01-28 13:40:00,
2013-01-28 08:43:00,23.9,8.9,30.37,NW,309,0.0,0.0,52,0.00,,SKC,0.00,VWS V14.01,2013-01-28 13:43:00,
2013-01-28 08:44:00,23.9,4.2,30.37,NW,308,0.0,0.0,42,0.00,,SKC,0.00,VWS V14.01,2013-01-28 13:44:00,
2013-01-28 08:45:00,23.9,4.2,30.37,NW,308,0.0,0.0,42,0.00,,SKC,0.00,VWS V14.01,2013-01-28 13:45:00,
2013-01-28 08:48:00,24.1,4.3,30.37,NW,308,0.0,0.0,42,0.00,,SKC,0.00,VWS V14.01,2013-01-28 13:48:00,
2013-01-28 08:49:00,24.4,3.6,30.37,NW,308,0.0,0.0,40,0.00,,SKC,0.00,VWS V14.01,2013-01-28 13:49:00,
2013-01-28 08:50:00,24.4,3.6,30.37,NW,308,0.0,0.0,40,0.00,,SKC,0.00,VWS V14.01,2013-01-28 13:50:00,
2013-01-28 08:53:00,24.5,3.7,30.37,NW,308,0.0,0.0,40,0.00,,SKC,0.00,VWS V14.01,2013-01-28 13:53:00,
2013-01-28 08:55:00,24.7,3.8,30.37,NW,308,0.0,0.0,40,0.00,,SKC,0.00,VWS V14.01,2013-01-28 13:55:00,
2013-01-28 08:56:00,24.7,3.8,30.37,NW,308,0.0,0.0,40,0.00,,SKC,0.00,VWS V14.01,2013-01-28 13:56:00,
2013-01-28 08:58:00,24.7,3.8,30.37,NW,308,0.0,0.0,40,0.00,,SKC,0.00,VWS V14.01,2013-01-28 13:58:00,
2013-01-28 09:00:00,24.8,3.9,30.37,NW,308,0.0,0.0,40,0.00,,SKC,0.00,VWS V14.01,2013-01-28 14:00:00,
2013-01-28 09:01:00,24.8,3.9,30.37,NW,308,0.0,0.0,40,0.00,,SKC,0.00,VWS V14.01,2013-01-28 14:01:00,
2013-01-28 09:03:00,24.8,3.9,30.37,NW,308,0.0,0.0,40,0.00,,SKC,0.00,VWS V14.01,2013-01-28 14:03:00,
2013-01-28 09:05:00,25.0,4.1,30.37,NW,308,0.0,0.0,40,0.00,,SKC,0.00,VWS V14.01,2013-01-28 14:05:00,
2013-01-28 09:06:00,25.0,3.5,30.37,NW,308,0.0,0.0,39,0.00,,SKC,0.00,VWS V14.01,2013-01-28 14:06:00,
2013-01-28 09:09:00,25.1,3.6,30.37,NW,308,0.0,0.0,39,0.00,,SKC,0.00,VWS V14.01,2013-01-28 14:09:00,
2013-01-28 09:10:00,25.1,3.6,30.37,NW,308,0.0,0.0,39,0.00,,SKC,0.00,VWS V14.01,2013-01-28 14:10:00,
2013-01-28 09:11:00,25.1,3.6,30.37,NW,309,0.0,0.0,39,0.00,,SKC,0.00,VWS V14.01,2013-01-28 14:11:00,
2013-01-28 09:14:00,25.3,3.8,30.37,NW,311,0.0,0.0,39,0.00,,SKC,0.00,VWS V14.01,2013-01-28 14:14:00,
2013-01-28 09:15:00,25.3,3.8,30.37,NW,309,0.0,0.0,39,0.00,,SKC,0.00,VWS V14.01,2013-01-28 14:15:00,
2013-01-28 09:16:00,25.4,3.3,30.37,NW,309,0.0,0.0,38,0.00,,SKC,0.00,VWS V14.01,2013-01-28 14:16:00,
2013-01-28 09:17:00,25.4,3.3,30.37,NW,309,0.0,0.0,38,0.00,,SKC,0.00,VWS V14.01,2013-01-28 14:17:00,
2013-01-28 09:19:00,25.6,3.5,30.37,NW,308,0.0,0.0,38,0.00,,SKC,0.00,VWS V14.01,2013-01-28 14:19:00,
2013-01-28 09:20:00,25.6,4.6,30.37,NW,309,0.0,0.0,40,0.00,,SKC,0.00,VWS V14.01,2013-01-28 14:20:00,
2013-01-28 09:21:00,25.7,4.7,30.37,NW,308,0.0,0.0,40,0.00,,SKC,0.00,VWS V14.01,2013-01-28 14:21:00,
2013-01-28 09:22:00,25.8,4.3,30.37,NW,308,0.0,0.0,39,0.00,,SKC,0.00,VWS V14.01,2013-01-28 14:22:00,
2013-01-28 09:25:00,26.0,3.9,30.37,NW,309,0.0,0.0,38,0.00,,SKC,0.00,VWS V14.01,2013-01-28 14:25:00,
2013-01-28 09:26:00,26.1,2.8,30.37,NW,309,0.0,0.0,36,0.00,,SKC,0.00,VWS V14.01,2013-01-28 14:26:00,
2013-01-28 09:27:00,26.1,2.8,30.37,NW,309,0.0,0.0,36,0.00,,SKC,0.00,VWS V14.01,2013-01-28 14:27:00,
2013-01-28 09:28:00,26.1,2.8,30.37,NW,309,0.0,0.0,36,0.00,,SKC,0.00,VWS V14.01,2013-01-28 14:28:00,
2013-01-28 09:30:00,26.3,3.6,30.36,NW,309,1.0,1.0,37,0.00,,SKC,0.00,VWS V14.01,2013-01-28 14:30:00,
2013-01-28 09:31:00,26.3,3.6,30.36,WNW,301,0.0,2.0,37,0.00,,SKC,0.00,VWS V14.01,2013-01-28 14:31:00,
2013-01-28 09:33:00,26.4,2.5,30.36,WNW,298,0.0,2.0,35,0.00,,SKC,0.00,VWS V14.01,2013-01-28 14:33:00,
2013-01-28 09:35:00,26.4,3.1,30.36,WNW,299,0.0,0.0,36,0.00,,SKC,0.00,VWS V14.01,2013-01-28 14:35:00,
2013-01-28 09:37:00,26.6,3.3,30.36,WNW,301,0.0,0.0,36,0.00,,SKC,0.00,VWS V14.01,2013-01-28 14:37:00,
2013-01-28 09:38:00,26.7,3.9,30.36,WNW,299,0.0,0.0,37,0.00,,SKC,0.00,VWS V14.01,2013-01-28 14:38:00,
2013-01-28 09:39:00,26.7,3.9,30.36,WNW,298,0.0,0.0,37,0.00,,SKC,0.00,VWS V14.01,2013-01-28 14:39:00,
2013-01-28 09:40:00,26.7,3.3,30.36,WNW,299,0.0,0.0,36,0.00,,SKC,0.00,VWS V14.01,2013-01-28 14:40:00,
2013-01-28 09:43:00,26.9,2.9,30.36,WNW,301,0.0,1.0,35,0.00,,SKC,0.00,VWS V14.01,2013-01-28 14:43:00,
2013-01-28 09:44:00,26.9,2.9,30.36,WNW,299,0.0,1.0,35,0.00,,SKC,0.00,VWS V14.01,2013-01-28 14:44:00,
2013-01-28 09:45:00,26.9,2.9,30.36,WNW,301,0.0,0.0,35,0.00,,SKC,0.00,VWS V14.01,2013-01-28 14:45:00,
2013-01-28 09:48:00,27.2,3.2,30.36,NW,304,0.0,0.0,35,0.00,,SKC,0.00,VWS V14.01,2013-01-28 14:48:00,
2013-01-28 09:49:00,27.2,3.2,30.36,WNW,299,0.0,0.0,35,0.00,,SKC,0.00,VWS V14.01,2013-01-28 14:49:00,
2013-01-28 09:50:00,27.2,3.2,30.36,WNW,299,0.0,0.0,35,0.00,,SKC,0.00,VWS V14.01,2013-01-28 14:50:00,
2013-01-28 09:53:00,27.3,3.3,30.36,WNW,299,0.0,0.0,35,0.00,,SKC,0.00,VWS V14.01,2013-01-28 14:53:00,
2013-01-28 09:54:00,27.3,3.3,30.36,WNW,299,0.0,0.0,35,0.00,,SKC,0.00,VWS V14.01,2013-01-28 14:54:00,
2013-01-28 09:55:00,27.3,3.3,30.36,WNW,299,0.0,0.0,35,0.00,,SKC,0.00,VWS V14.01,2013-01-28 14:55:00,
2013-01-28 09:59:00,27.3,3.3,30.35,WNW,298,0.0,0.0,35,0.00,,SKC,0.00,VWS V14.01,2013-01-28 14:59:00,
2013-01-28 10:00:00,27.3,3.3,30.35,WNW,298,1.0,1.0,35,0.00,,SKC,0.00,VWS V14.01,2013-01-28 15:00:00,
2013-01-28 10:04:00,27.5,2.8,30.35,WNW,299,0.0,1.0,34,0.00,,SKC,0.00,VWS V14.01,2013-01-28 15:04:00,
2013-01-28 10:05:00,27.5,3.5,30.35,WNW,295,0.0,0.0,35,0.00,,SKC,0.00,VWS V14.01,2013-01-28 15:05:00,
2013-01-28 10:06:00,27.5,2.8,30.35,WNW,298,0.0,0.0,34,0.00,,SKC,0.00,VWS V14.01,2013-01-28 15:06:00,
2013-01-28 10:09:00,27.6,2.3,30.35,WNW,298,0.0,0.0,33,0.00,,SKC,0.00,VWS V14.01,2013-01-28 15:09:00,
2013-01-28 10:10:00,27.6,2.3,30.35,WNW,298,0.0,0.0,33,0.00,,SKC,0.00,VWS V14.01,2013-01-28 15:10:00,
2013-01-28 10:11:00,27.6,2.3,30.35,WNW,298,0.0,0.0,33,0.00,,SKC,0.00,VWS V14.01,2013-01-28 15:11:00,
2013-01-28 10:14:00,27.6,2.3,30.35,WNW,296,0.0,0.0,33,0.00,,SKC,0.00,VWS V14.01,2013-01-28 15:14:00,
2013-01-28 10:15:00,27.6,2.9,30.35,WNW,296,0.0,0.0,34,0.00,,SKC,0.00,VWS V14.01,2013-01-28 15:15:00,
2013-01-28 10:16:00,27.6,2.9,30.35,WNW,296,0.0,0.0,34,0.00,,SKC,0.00,VWS V14.01,2013-01-28 15:16:00,
2013-01-28 10:19:00,27.8,1.8,30.35,WSW,250,0.0,0.0,32,0.00,,SKC,0.00,VWS V14.01,2013-01-28 15:19:00,
2013-01-28 10:20:00,27.6,1.6,30.35,WSW,254,0.0,3.0,32,0.00,,SKC,0.00,VWS V14.01,2013-01-28 15:20:00,
2013-01-28 10:21:00,27.8,1.8,30.35,WSW,253,0.0,0.0,32,0.00,,SKC,0.00,VWS V14.01,2013-01-28 15:21:00,
2013-01-28 10:22:00,27.8,1.8,30.35,WSW,248,0.0,0.0,32,0.00,,SKC,0.00,VWS V14.01,2013-01-28 15:22:00,
2013-01-28 10:24:00,27.6,2.3,30.35,WSW,248,0.0,0.0,33,0.00,,SKC,0.00,VWS V14.01,2013-01-28 15:24:00,
2013-01-28 10:25:00,27.6,2.3,30.35,WSW,248,0.0,0.0,33,0.00,,SKC,0.00,VWS V14.01,2013-01-28 15:25:00,
2013-01-28 10:26:00,27.6,1.6,30.35,WSW,247,0.0,0.0,32,0.00,,SKC,0.00,VWS V14.01,2013-01-28 15:26:00,
2013-01-28 10:27:00,27.6,1.6,30.35,WSW,247,0.0,0.0,32,0.00,,SKC,0.00,VWS V14.01,2013-01-28 15:27:00,
2013-01-28 10:29:00,27.8,1.8,30.35,WSW,251,0.0,0.0,32,0.00,,SKC,0.00,VWS V14.01,2013-01-28 15:29:00,
2013-01-28 10:30:00,27.8,1.8,30.35,WSW,250,0.0,0.0,32,0.00,,SKC,0.00,VWS V14.01,2013-01-28 15:30:00,
2013-01-28 10:31:00,27.8,1.1,30.35,WSW,248,0.0,0.0,31,0.00,,SKC,0.00,VWS V14.01,2013-01-28 15:31:00,
2013-01-28 10:32:00,27.8,1.1,30.35,WSW,250,0.0,1.0,31,0.00,,SKC,0.00,VWS V14.01,2013-01-28 15:32:00,
2013-01-28 10:35:00,27.9,1.2,30.35,WSW,250,0.0,0.0,31,0.00,,SKC,0.00,VWS V14.01,2013-01-28 15:35:00,
2013-01-28 10:36:00,27.9,1.2,30.35,WSW,246,1.0,1.0,31,0.00,,SKC,0.00,VWS V14.01,2013-01-28 15:36:00,
2013-01-28 10:37:00,27.8,1.1,30.35,WSW,250,2.0,2.0,31,0.00,,SKC,0.00,VWS V14.01,2013-01-28 15:37:00,
2013-01-28 10:38:00,27.8,1.1,30.35,WSW,247,1.0,2.0,31,0.00,,SKC,0.00,VWS V14.01,2013-01-28 15:38:00,
2013-01-28 10:40:00,27.8,1.1,30.35,WSW,250,0.0,0.0,31,0.00,,SKC,0.00,VWS V14.01,2013-01-28 15:40:00,
2013-01-28 10:41:00,27.8,1.8,30.35,WSW,248,0.0,0.0,32,0.00,,SKC,0.00,VWS V14.01,2013-01-28 15:41:00,
2013-01-28 10:42:00,27.8,1.8,30.35,WSW,251,2.0,2.0,32,0.00,,SKC,0.00,VWS V14.01,2013-01-28 15:42:00,
2013-01-28 10:43:00,27.8,1.8,30.35,WSW,250,1.0,2.0,32,0.00,,SKC,0.00,VWS V14.01,2013-01-28 15:43:00,
2013-01-28 10:45:00,27.8,1.8,30.34,WSW,250,1.0,1.0,32,0.00,,SKC,0.00,VWS V14.01,2013-01-28 15:45:00,
2013-01-28 10:46:00,27.8,1.8,30.34,WSW,248,0.0,1.0,32,0.00,,SKC,0.00,VWS V14.01,2013-01-28 15:46:00,
2013-01-28 10:48:00,27.8,1.8,30.34,WSW,250,2.0,2.0,32,0.00,,SKC,0.00,VWS V14.01,2013-01-28 15:48:00,
2013-01-28 10:49:00,27.8,1.8,30.34,WSW,248,0.0,2.0,32,0.00,,SKC,0.00,VWS V14.01,2013-01-28 15:49:00,
2013-01-28 10:50:00,27.8,1.8,30.34,WSW,250,0.0,2.0,32,0.00,,SKC,0.00,VWS V14.01,2013-01-28 15:50:00,
2013-01-28 10:51:00,27.8,1.8,30.34,WSW,248,0.0,0.0,32,0.00,,SKC,0.00,VWS V14.01,2013-01-28 15:51:00,
2013-01-28 10:52:00,27.8,2.5,30.34,WSW,248,0.0,0.0,33,0.00,,SKC,0.00,VWS V14.01,2013-01-28 15:52:00,
2013-01-28 10:53:00,27.8,2.5,30.34,SW,229,3.0,4.0,33,0.00,,SKC,0.00,VWS V14.01,2013-01-28 15:53:00,
2013-01-28 10:54:00,27.8,2.5,30.34,SW,232,1.0,4.0,33,0.00,,SKC,0.00,VWS V14.01,2013-01-28 15:54:00,
2013-01-28 10:55:00,27.8,1.8,30.34,SW,232,1.0,4.0,32,0.00,,SKC,0.00,VWS V14.01,2013-01-28 15:55:00,
2013-01-28 10:56:00,27.9,1.9,30.34,WSW,237,2.0,3.0,32,0.00,,SKC,0.00,VWS V14.01,2013-01-28 15:56:00,
2013-01-28 10:58:00,27.9,1.9,30.34,SW,236,0.0,3.0,32,0.00,,SKC,0.00,VWS V14.01,2013-01-28 15:58:00,
2013-01-28 10:59:00,28.1,2.0,30.33,SW,236,0.0,3.0,32,0.00,,SKC,0.00,VWS V14.01,2013-01-28 15:59:00,
2013-01-28 11:00:00,28.1,2.0,30.33,WSW,237,0.0,3.0,32,0.00,,SKC,0.00,VWS V14.01,2013-01-28 16:00:00,
2013-01-28 11:01:00,28.1,2.0,30.33,WSW,240,1.0,1.0,32,0.00,,SKC,0.00,VWS V14.01,2013-01-28 16:01:00,
2013-01-28 11:04:00,28.1,2.0,30.33,WSW,240,1.0,3.0,32,0.00,,SKC,0.00,VWS V14.01,2013-01-28 16:04:00,
2013-01-28 11:05:00,28.1,2.7,30.33,WSW,240,1.0,2.0,33,0.00,,SKC,0.00,VWS V14.01,2013-01-28 16:05:00,
2013-01-28 11:06:00,28.1,2.7,30.33,WSW,240,2.0,2.0,33,0.00,,SKC,0.00,VWS V14.01,2013-01-28 16:06:00,
2013-01-28 11:09:00,28.2,3.5,30.33,WSW,244,1.0,2.0,34,0.00,,SKC,0.00,VWS V14.01,2013-01-28 16:09:00,
2013-01-28 11:10:00,28.2,3.5,30.33,WSW,243,2.0,2.0,34,0.00,,SKC,0.00,VWS V14.01,2013-01-28 16:10:00,
2013-01-28 11:11:00,28.2,2.1,30.33,WSW,239,0.0,2.0,32,0.00,,SKC,0.00,VWS V14.01,2013-01-28 16:11:00,
2013-01-28 11:14:00,28.2,2.1,30.32,WSW,240,1.0,2.0,32,0.00,,SKC,0.00,VWS V14.01,2013-01-28 16:14:00,
2013-01-28 11:15:00,28.2,2.1,30.32,WSW,241,2.0,3.0,32,0.00,,SKC,0.00,VWS V14.01,2013-01-28 16:15:00,
2013-01-28 11:17:00,28.2,2.8,30.32,WSW,244,0.0,3.0,33,0.00,,SKC,0.00,VWS V14.01,2013-01-28 16:17:00,
2013-01-28 11:19:00,28.2,2.8,30.32,WSW,241,0.0,0.0,33,0.00,,SKC,0.00,VWS V14.01,2013-01-28 16:19:00,
2013-01-28 11:20:00,28.2,2.8,30.32,WSW,243,3.0,3.0,33,0.00,,SKC,0.00,VWS V14.01,2013-01-28 16:20:00,
2013-01-28 11:22:00,28.2,2.8,30.32,West,264,1.0,4.0,33,0.00,,SKC,0.00,VWS V14.01,2013-01-28 16:22:00,
2013-01-28 11:25:00,28.1,2.7,30.32,West,277,0.0,2.0,33,0.00,,SKC,0.00,VWS V14.01,2013-01-28 16:25:00,
2013-01-28 11:26:00,28.1,2.7,30.32,West,278,0.0,2.0,33,0.00,,SKC,0.00,VWS V14.01,2013-01-28 16:26:00,
2013-01-28 11:27:00,28.1,2.0,30.32,West,277,0.0,2.0,32,0.00,,SKC,0.00,VWS V14.01,2013-01-28 16:27:00,
2013-01-28 11:30:00,28.1,2.0,30.31,West,263,0.0,1.0,32,0.00,,SKC,0.00,VWS V14.01,2013-01-28 16:30:00,
2013-01-28 11:31:00,27.9,1.9,30.31,West,261,0.0,1.0,32,0.00,,SKC,0.00,VWS V14.01,2013-01-28 16:31:00,
2013-01-28 11:32:00,27.9,1.9,30.31,West,264,0.0,1.0,32,0.00,,SKC,0.00,VWS V14.01,2013-01-28 16:32:00,
2013-01-28 11:35:00,27.9,2.5,30.31,West,261,0.0,0.0,33,0.00,,SKC,0.00,VWS V14.01,2013-01-28 16:35:00,
2013-01-28 11:36:00,27.9,2.5,30.31,West,261,0.0,1.0,33,0.00,,SKC,0.00,VWS V14.01,2013-01-28 16:36:00,
2013-01-28 11:37:00,28.1,3.4,30.31,West,263,2.0,2.0,34,0.00,,SKC,0.00,VWS V14.01,2013-01-28 16:37:00,
2013-01-28 11:40:00,28.1,4.6,30.31,West,261,0.0,1.0,36,0.00,,SKC,0.00,VWS V14.01,2013-01-28 16:40:00,
2013-01-28 11:41:00,28.1,4.0,30.31,West,263,2.0,2.0,35,0.00,,SKC,0.00,VWS V14.01,2013-01-28 16:41:00,
2013-01-28 11:42:00,28.1,4.0,30.31,West,265,0.0,2.0,35,0.00,,SKC,0.00,VWS V14.01,2013-01-28 16:42:00,
2013-01-28 11:45:00,28.2,4.7,30.30,West,261,1.0,3.0,36,0.00,,SKC,0.00,VWS V14.01,2013-01-28 16:45:00,
2013-01-28 11:47:00,28.2,4.1,30.30,West,263,2.0,3.0,35,0.00,,SKC,0.00,VWS V14.01,2013-01-28 16:47:00,
2013-01-28 11:48:00,28.2,5.9,30.30,West,260,0.0,3.0,38,0.00,,SKC,0.00,VWS V14.01,2013-01-28 16:48:00,
2013-01-28 11:50:00,28.4,6.1,30.30,WSW,258,0.0,0.0,38,0.00,,SKC,0.00,VWS V14.01,2013-01-28 16:50:00,
2013-01-28 11:52:00,28.4,4.2,30.30,West,260,1.0,1.0,35,0.00,,SKC,0.00,VWS V14.01,2013-01-28 16:52:00,
2013-01-28 11:53:00,28.4,4.2,30.30,West,260,0.0,2.0,35,0.00,,SKC,0.00,VWS V14.01,2013-01-28 16:53:00,
2013-01-28 11:54:00,28.4,4.2,30.30,West,260,1.0,1.0,35,0.00,,SKC,0.00,VWS V14.01,2013-01-28 16:54:00,
2013-01-28 11:55:00,28.5,4.3,30.30,WSW,258,2.0,2.0,35,0.00,,SKC,0.00,VWS V14.01,2013-01-28 16:55:00,
2013-01-28 11:57:00,28.5,4.3,30.30,West,263,0.0,2.0,35,0.00,,SKC,0.00,VWS V14.01,2013-01-28 16:57:00,
2013-01-28 11:58:00,28.5,4.3,30.28,WSW,258,0.0,3.0,35,0.00,,SKC,0.00,VWS V14.01,2013-01-28 16:58:00,
2013-01-28 12:00:00,28.7,4.5,30.28,West,260,0.0,1.0,35,0.00,,SKC,0.00,VWS V14.01,2013-01-28 17:00:00,
2013-01-28 12:01:00,28.7,4.5,30.28,West,261,0.0,1.0,35,0.00,,SKC,0.00,VWS V14.01,2013-01-28 17:01:00,
2013-01-28 12:02:00,28.8,4.6,30.28,West,260,0.0,2.0,35,0.00,,SKC,0.00,VWS V14.01,2013-01-28 17:02:00,
2013-01-28 12:03:00,28.8,5.2,30.28,West,261,0.0,2.0,36,0.00,,SKC,0.00,VWS V14.01,2013-01-28 17:03:00,
2013-01-28 12:05:00,28.8,5.2,30.28,West,263,2.0,3.0,36,0.00,,SKC,0.00,VWS V14.01,2013-01-28 17:05:00,
2013-01-28 12:06:00,28.7,5.1,30.28,WSW,256,1.0,3.0,36,0.00,,SKC,0.00,VWS V14.01,2013-01-28 17:06:00,
2013-01-28 12:07:00,28.7,5.1,30.28,WSW,256,0.0,3.0,36,0.00,,SKC,0.00,VWS V14.01,2013-01-28 17:07:00,
2013-01-28 12:09:00,28.7,5.1,30.28,WSW,256,1.0,3.0,36,0.00,,SKC,0.00,VWS V14.01,2013-01-28 17:09:00,
2013-01-28 12:10:00,28.7,5.1,30.28,WSW,254,0.0,3.0,36,0.00,,SKC,0.00,VWS V14.01,2013-01-28 17:10:00,
2013-01-28 12:11:00,28.7,5.7,30.28,WSW,254,2.0,2.0,37,0.00,,SKC,0.00,VWS V14.01,2013-01-28 17:11:00,
2013-01-28 12:12:00,28.7,5.7,30.28,WSW,247,0.0,2.0,37,0.00,,SKC,0.00,VWS V14.01,2013-01-28 17:12:00,
2013-01-28 12:13:00,28.7,5.1,30.28,WSW,250,0.0,2.0,36,0.00,,SKC,0.00,VWS V14.01,2013-01-28 17:13:00,
2013-01-28 12:14:00,28.8,5.2,30.26,WSW,247,0.0,0.0,36,0.00,,SKC,0.00,VWS V14.01,2013-01-28 17:14:00,
2013-01-28 12:15:00,28.8,5.2,30.26,WSW,248,0.0,2.0,36,0.00,,SKC,0.00,VWS V14.01,2013-01-28 17:15:00,
2013-01-28 12:16:00,28.8,5.2,30.26,West,260,0.0,0.0,36,0.00,,SKC,0.00,VWS V14.01,2013-01-28 17:16:00,
2013-01-28 12:17:00,28.8,4.6,30.26,West,261,0.0,0.0,35,0.00,,SKC,0.00,VWS V14.01,2013-01-28 17:17:00,
2013-01-28 12:18:00,28.8,5.2,30.26,West,263,0.0,1.0,36,0.00,,SKC,0.00,VWS V14.01,2013-01-28 17:18:00,
2013-01-28 12:19:00,29.0,4.8,30.26,West,265,0.0,1.0,35,0.00,,SKC,0.00,VWS V14.01,2013-01-28 17:19:00,
2013-01-28 12:20:00,29.0,5.4,30.26,West,263,0.0,1.0,36,0.00,,SKC,0.00,VWS V14.01,2013-01-28 17:20:00,
2013-01-28 12:21:00,29.0,4.8,30.26,West,265,0.0,1.0,35,0.00,,SKC,0.00,VWS V14.01,2013-01-28 17:21:00,
2013-01-28 12:22:00,29.0,4.8,30.26,West,265,0.0,1.0,35,0.00,,SKC,0.00,VWS V14.01,2013-01-28 17:22:00,
2013-01-28 12:23:00,29.0,4.8,30.26,West,265,0.0,1.0,35,0.00,,SKC,0.00,VWS V14.01,2013-01-28 17:23:00,
2013-01-28 12:25:00,29.1,4.9,30.26,West,264,0.0,0.0,35,0.00,,SKC,0.00,VWS V14.01,2013-01-28 17:25:00,
2013-01-28 12:26:00,29.1,4.9,30.26,West,265,0.0,0.0,35,0.00,,SKC,0.00,VWS V14.01,2013-01-28 17:26:00,
2013-01-28 12:28:00,29.3,5.1,30.26,West,265,0.0,0.0,35,0.00,,SKC,0.00,VWS V14.01,2013-01-28 17:28:00,
2013-01-28 12:30:00,29.3,4.4,30.26,West,265,0.0,0.0,34,0.00,,SKC,0.00,VWS V14.01,2013-01-28 17:30:00,
2013-01-28 12:33:00,29.3,3.8,30.26,West,268,0.0,1.0,33,0.00,,SKC,0.00,VWS V14.01,2013-01-28 17:33:00,
2013-01-28 12:34:00,29.3,3.8,30.26,West,265,0.0,1.0,33,0.00,,SKC,0.00,VWS V14.01,2013-01-28 17:34:00,
2013-01-28 12:35:00,29.3,3.8,30.26,West,265,0.0,0.0,33,0.00,,SKC,0.00,VWS V14.01,2013-01-28 17:35:00,
2013-01-28 12:38:00,29.3,3.8,30.26,West,267,0.0,0.0,33,0.00,,SKC,0.00,VWS V14.01,2013-01-28 17:38:00,
2013-01-28 12:39:00,29.3,3.8,30.26,West,268,0.0,1.0,33,0.00,,SKC,0.00,VWS V14.01,2013-01-28 17:39:00,
2013-01-28 12:40:00,29.4,3.2,30.26,West,268,0.0,0.0,32,0.00,,SKC,0.00,VWS V14.01,2013-01-28 17:40:00,
2013-01-28 12:43:00,29.4,3.9,30.26,West,270,0.0,0.0,33,0.00,,SKC,0.00,VWS V14.01,2013-01-28 17:43:00,
2013-01-28 12:44:00,29.5,4.6,30.25,West,268,1.0,1.0,34,0.00,,SKC,0.00,VWS V14.01,2013-01-28 17:44:00,
2013-01-28 12:45:00,29.5,4.6,30.25,West,270,0.0,2.0,34,0.00,,SKC,0.00,VWS V14.01,2013-01-28 17:45:00,
2013-01-28 12:46:00,29.5,4.6,30.25,West,268,0.0,2.0,34,0.00,,SKC,0.00,VWS V14.01,2013-01-28 17:46:00,
2013-01-28 12:48:00,29.7,4.1,30.25,West,268,0.0,2.0,33,0.00,,SKC,0.00,VWS V14.01,2013-01-28 17:48:00,
2013-01-28 12:49:00,29.7,4.8,30.25,West,272,0.0,0.0,34,0.00,,SKC,0.00,VWS V14.01,2013-01-28 17:49:00,
2013-01-28 12:50:00,29.7,4.1,30.25,West,271,0.0,2.0,33,0.00,,SKC,0.00,VWS V14.01,2013-01-28 17:50:00,
2013-01-28 12:51:00,29.7,4.1,30.25,West,270,0.0,0.0,33,0.00,,SKC,0.00,VWS V14.01,2013-01-28 17:51:00,
2013-01-28 12:54:00,29.7,4.1,30.25,West,270,0.0,1.0,33,0.00,,SKC,0.00,VWS V14.01,2013-01-28 17:54:00,
2013-01-28 12:55:00,29.7,4.1,30.25,West,268,0.0,0.0,33,0.00,,SKC,0.00,VWS V14.01,2013-01-28 17:55:00,
2013-01-28 12:56:00,29.7,4.1,30.25,West,270,0.0,0.0,33,0.00,,SKC,0.00,VWS V14.01,2013-01-28 17:56:00,
2013-01-28 12:59:00,29.8,4.2,30.24,West,270,2.0,2.0,33,0.00,,SKC,0.00,VWS V14.01,2013-01-28 17:59:00,
2013-01-28 13:00:00,29.8,3.5,30.24,West,270,1.0,2.0,32,0.00,,SKC,0.00,VWS V14.01,2013-01-28 18:00:00,
2013-01-28 13:01:00,29.8,3.5,30.24,West,268,0.0,2.0,32,0.00,,SKC,0.00,VWS V14.01,2013-01-28 18:01:00,
2013-01-28 13:04:00,29.7,4.1,30.24,West,260,1.0,4.0,33,0.00,,SKC,0.00,VWS V14.01,2013-01-28 18:04:00,
2013-01-28 13:05:00,29.7,4.1,30.24,WSW,257,0.0,2.0,33,0.00,,SKC,0.00,VWS V14.01,2013-01-28 18:05:00,
2013-01-28 13:06:00,29.7,4.1,30.24,WSW,258,3.0,3.0,33,0.00,,SKC,0.00,VWS V14.01,2013-01-28 18:06:00,
2013-01-28 13:09:00,29.8,4.2,30.24,West,261,0.0,3.0,33,0.00,,SKC,0.00,VWS V14.01,2013-01-28 18:09:00,
2013-01-28 13:10:00,29.8,4.2,30.24,West,263,0.0,3.0,33,0.00,,SKC,0.00,VWS V14.01,2013-01-28 18:10:00,
2013-01-28 13:11:00,29.8,4.2,30.24,West,261,0.0,1.0,33,0.00,,SKC,0.00,VWS V14.01,2013-01-28 18:11:00,
2013-01-28 13:12:00,29.8,4.2,30.24,West,261,0.0,1.0,33,0.00,,SKC,0.00,VWS V14.01,2013-01-28 18:12:00,
2013-01-28 13:14:00,29.7,4.8,30.23,West,265,0.0,0.0,34,0.00,,SKC,0.00,VWS V14.01,2013-01-28 18:14:00,
2013-01-28 13:15:00,29.7,4.8,30.23,West,267,0.0,3.0,34,0.00,,SKC,0.00,VWS V14.01,2013-01-28 18:15:00,
2013-01-28 13:16:00,29.7,6.0,30.23,West,267,0.0,0.0,36,0.00,,SKC,0.00,VWS V14.01,2013-01-28 18:16:00,
2013-01-28 13:17:00,29.7,6.0,30.23,West,267,0.0,0.0,36,0.00,,SKC,0.00,VWS V14.01,2013-01-28 18:17:00,
2013-01-28 13:18:00,29.7,6.0,30.23,West,267,0.0,0.0,36,0.00,,SKC,0.00,VWS V14.01,2013-01-28 18:18:00,
2013-01-28 13:20:00,29.5,8.2,30.23,West,263,0.0,0.0,40,0.00,,SKC,0.00,VWS V14.01,2013-01-28 18:20:00,
2013-01-28 13:22:00,29.5,8.2,30.23,NNW,333,0.0,1.0,40,0.00,,SKC,0.00,VWS V14.01,2013-01-28 18:22:00,
2013-01-28 13:23:00,29.5,9.2,30.23,WNW,302,3.0,3.0,42,0.00,,SKC,0.00,VWS V14.01,2013-01-28 18:23:00,
2013-01-28 13:25:00,29.5,10.8,30.23,WNW,284,0.0,0.0,45,0.00,,SKC,0.00,VWS V14.01,2013-01-28 18:25:00,
2013-01-28 13:27:00,29.3,11.1,30.23,West,281,0.0,0.0,46,0.00,,SKC,0.00,VWS V14.01,2013-01-28 18:27:00,
2013-01-28 13:28:00,29.1,10.9,30.23,West,280,0.0,0.0,46,0.00,,SKC,0.00,VWS V14.01,2013-01-28 18:28:00,
2013-01-28 13:30:00,29.1,11.9,30.23,West,280,0.0,0.0,48,0.00,,SKC,0.00,VWS V14.01,2013-01-28 18:30:00,
2013-01-28 13:31:00,29.0,11.8,30.23,West,268,2.0,2.0,48,0.00,,SKC,0.00,VWS V14.01,2013-01-28 18:31:00,
2013-01-28 13:32:00,28.8,13.4,30.23,West,271,2.0,4.0,52,0.00,,SKC,0.00,VWS V14.01,2013-01-28 18:32:00,
2013-01-28 13:33:00,28.8,13.8,30.23,WNW,296,1.0,4.0,53,0.00,,SKC,0.00,VWS V14.01,2013-01-28 18:33:00,
2013-01-28 13:34:00,28.7,13.8,30.23,WNW,299,0.0,4.0,53,0.00,,SKC,0.00,VWS V14.01,2013-01-28 18:34:00,
2013-01-28 13:35:00,28.7,13.7,30.23,West,271,2.0,4.0,53,0.00,,SKC,0.00,VWS V14.01,2013-01-28 18:35:00,
2013-01-28 13:36:00,28.4,13.9,30.23,West,270,0.0,2.0,54,0.00,,SKC,0.00,VWS V14.01,2013-01-28 18:36:00,
2013-01-28 13:37:00,28.4,13.9,30.23,West,271,0.0,2.0,54,0.00,,SKC,0.00,VWS V14.01,2013-01-28 18:37:00,
2013-01-28 13:38:00,28.4,13.9,30.23,West,271,0.0,2.0,54,0.00,,SKC,0.00,VWS V14.01,2013-01-28 18:38:00,
2013-01-28 13:39:00,28.4,14.3,30.23,West,268,0.0,2.0,55,0.00,,SKC,0.00,VWS V14.01,2013-01-28 18:39:00,
2013-01-28 13:40:00,28.4,14.3,30.23,West,264,0.0,2.0,55,0.00,,SKC,0.00,VWS V14.01,2013-01-28 18:40:00,
2013-01-28 13:41:00,28.4,14.3,30.23,WSW,250,1.0,2.0,55,0.00,,SKC,0.00,VWS V14.01,2013-01-28 18:41:00,
2013-01-28 13:43:00,28.4,14.7,30.23,WSW,253,0.0,3.0,56,0.00,,SKC,0.00,VWS V14.01,2013-01-28 18:43:00,
2013-01-28 13:45:00,28.2,14.5,30.21,WSW,254,0.0,2.0,56,0.00,,SKC,0.00,VWS V14.01,2013-01-28 18:45:00,
2013-01-28 13:47:00,28.2,15.3,30.21,WSW,253,0.0,2.0,58,0.00,,SKC,0.00,VWS V14.01,2013-01-28 18:47:00,
2013-01-28 13:48:00,28.2,15.3,30.21,WSW,251,0.0,2.0,58,0.00,,SKC,0.00,VWS V14.01,2013-01-28 18:48:00,
2013-01-28 13:50:00,28.2,15.3,30.21,WSW,254,0.0,0.0,58,0.00,,SKC,0.00,VWS V14.01,2013-01-28 18:50:00,
2013-01-28 13:52:00,28.1,15.2,30.21,WSW,253,0.0,0.0,58,0.00,,SKC,0.00,VWS V14.01,2013-01-28 18:52:00,
2013-01-28 13:53:00,28.2,15.7,30.21,WSW,250,5.0,5.0,59,0.00,,SKC,0.00,VWS V14.01,2013-01-28 18:53:00,
2013-01-28 13:55:00,28.2,15.7,30.21,WSW,251,1.0,3.0,59,0.00,,SKC,0.00,VWS V14.01,2013-01-28 18:55:00,
2013-01-28 13:57:00,28.1,16.0,30.21,WSW,251,0.0,3.0,60,0.00,,SKC,0.00,VWS V14.01,2013-01-28 18:57:00,
2013-01-28 13:59:00,27.9,16.2,30.20,WSW,253,0.0,3.0,61,0.00,,SKC,0.00,VWS V14.01,2013-01-28 18:59:00,
2013-01-28 14:00:00,27.9,16.2,30.20,WSW,251,0.0,0.0,61,0.00,,SKC,0.00,VWS V14.01,2013-01-28 19:00:00,
2013-01-28 14:02:00,27.8,16.5,30.20,WSW,251,0.0,0.0,62,0.00,,SKC,0.00,VWS V14.01,2013-01-28 19:02:00,
2013-01-28 14:04:00,27.8,16.9,30.20,WSW,251,0.0,2.0,63,0.00,,SKC,0.00,VWS V14.01,2013-01-28 19:04:00,
2013-01-28 14:05:00,27.8,16.9,30.20,WSW,251,0.0,2.0,63,0.00,,SKC,0.00,VWS V14.01,2013-01-28 19:05:00,
2013-01-28 14:06:00,27.8,17.2,30.20,WSW,253,0.0,0.0,64,0.00,,SKC,0.00,VWS V14.01,2013-01-28 19:06:00,
2013-01-28 14:07:00,27.6,17.0,30.20,WSW,250,0.0,0.0,64,0.00,,SKC,0.00,VWS V14.01,2013-01-28 19:07:00,
2013-01-28 14:09:00,27.6,17.4,30.20,WSW,253,2.0,2.0,65,0.00,,SKC,0.00,VWS V14.01,2013-01-28 19:09:00,
2013-01-28 14:10:00,27.6,17.4,30.20,WSW,253,2.0,2.0,65,0.00,,SKC,0.00,VWS V14.01,2013-01-28 19:10:00,
2013-01-28 14:11:00,27.5,18.0,30.20,WSW,254,1.0,3.0,67,0.00,,SKC,0.00,VWS V14.01,2013-01-28 19:11:00,
2013-01-28 14:12:00,27.3,17.8,30.20,WSW,251,1.0,3.0,67,0.00,,SKC,0.00,VWS V14.01,2013-01-28 19:12:00,
2013-01-28 14:14:00,27.2,18.4,30.18,WSW,253,0.0,0.0,69,0.00,,SKC,0.00,VWS V14.01,2013-01-28 19:14:00,
2013-01-28 14:15:00,27.2,18.4,30.18,WSW,253,0.0,0.0,69,0.00,,SKC,0.00,VWS V14.01,2013-01-28 19:15:00,
2013-01-28 14:16:00,27.2,18.4,30.18,WSW,253,0.0,2.0,69,0.00,,SKC,0.00,VWS V14.01,2013-01-28 19:16:00,
2013-01-28 14:17:00,27.0,18.5,30.18,WSW,253,0.0,2.0,70,0.00,,SKC,0.00,VWS V14.01,2013-01-28 19:17:00,
2013-01-28 14:20:00,27.0,18.9,30.18,WSW,253,0.0,0.0,71,0.00,,SKC,0.00,VWS V14.01,2013-01-28 19:20:00,
2013-01-28 14:22:00,27.0,18.9,30.18,WSW,256,0.0,0.0,71,0.00,,SKC,0.00,VWS V14.01,2013-01-28 19:22:00,
2013-01-28 14:25:00,26.9,19.1,30.18,WSW,257,0.0,0.0,72,0.00,,SKC,0.00,VWS V14.01,2013-01-28 19:25:00,
2013-01-28 14:27:00,26.7,19.2,30.18,WSW,256,0.0,2.0,73,0.00,,SKC,0.00,VWS V14.01,2013-01-28 19:27:00,
2013-01-28 14:30:00,26.6,19.4,30.18,WSW,256,0.0,0.0,74,0.00,,SKC,0.00,VWS V14.01,2013-01-28 19:30:00,
2013-01-28 14:32:00,26.4,19.2,30.18,WSW,256,0.0,2.0,74,0.00,,SKC,0.00,VWS V14.01,2013-01-28 19:32:00,
2013-01-28 14:33:00,26.4,19.6,30.18,WSW,257,0.0,2.0,75,0.00,,SKC,0.00,VWS V14.01,2013-01-28 19:33:00,
2013-01-28 14:35:00,26.4,19.6,30.18,WSW,258,0.0,0.0,75,0.00,,SKC,0.00,VWS V14.01,2013-01-28 19:35:00,
2013-01-28 14:36:00,26.4,19.6,30.18,WSW,257,0.0,0.0,75,0.00,,SKC,0.00,VWS V14.01,2013-01-28 19:36:00,
2013-01-28 14:37:00,26.4,20.2,30.18,West,265,1.0,3.0,77,0.00,,SKC,0.00,VWS V14.01,2013-01-28 19:37:00,
2013-01-28 14:38:00,26.4,20.2,30.18,West,260,0.0,3.0,77,0.00,,SKC,0.00,VWS V14.01,2013-01-28 19:38:00,
2013-01-28 14:40:00,26.3,20.4,30.18,West,261,0.0,0.0,78,0.00,,SKC,0.00,VWS V14.01,2013-01-28 19:40:00,
2013-01-28 14:41:00,26.3,20.4,30.18,West,263,0.0,0.0,78,0.00,,SKC,0.00,VWS V14.01,2013-01-28 19:41:00,
2013-01-28 14:42:00,26.3,20.4,30.18,West,261,0.0,0.0,78,0.00,,SKC,0.00,VWS V14.01,2013-01-28 19:42:00,
2013-01-28 14:43:00,26.3,20.4,30.18,West,265,0.0,0.0,78,0.00,,SKC,0.00,VWS V14.01,2013-01-28 19:43:00,
2013-01-28 14:45:00,26.3,20.7,30.18,West,261,0.0,0.0,79,0.00,,SKC,0.00,VWS V14.01,2013-01-28 19:45:00,
2013-01-28 14:46:00,26.3,20.7,30.18,West,263,0.0,0.0,79,0.00,,SKC,0.00,VWS V14.01,2013-01-28 19:46:00,
2013-01-28 14:47:00,26.3,21.0,30.18,West,264,1.0,1.0,80,0.00,,SKC,0.00,VWS V14.01,2013-01-28 19:47:00,
2013-01-28 14:48:00,26.3,21.0,30.18,West,264,0.0,1.0,80,0.00,,SKC,0.00,VWS V14.01,2013-01-28 19:48:00,
2013-01-28 14:50:00,26.3,21.0,30.18,West,263,0.0,0.0,80,0.00,,SKC,0.00,VWS V14.01,2013-01-28 19:50:00,
2013-01-28 14:51:00,26.3,21.0,30.18,West,263,0.0,0.0,80,0.00,,SKC,0.00,VWS V14.01,2013-01-28 19:51:00,
2013-01-28 14:53:00,26.1,21.1,30.18,West,261,0.0,0.0,81,0.00,,SKC,0.00,VWS V14.01,2013-01-28 19:53:00,
2013-01-28 14:54:00,26.1,21.1,30.18,West,261,0.0,0.0,81,0.00,,SKC,0.00,VWS V14.01,2013-01-28 19:54:00,
2013-01-28 14:55:00,26.0,21.0,30.18,West,261,0.0,0.0,81,0.00,,SKC,0.00,VWS V14.01,2013-01-28 19:55:00,
2013-01-28 14:56:00,26.0,21.3,30.18,West,263,0.0,0.0,82,0.00,,SKC,0.00,VWS V14.01,2013-01-28 19:56:00,
2013-01-28 14:57:00,26.0,21.3,30.18,West,260,0.0,0.0,82,0.00,,SKC,0.00,VWS V14.01,2013-01-28 19:57:00,
2013-01-28 14:58:00,26.0,21.3,30.18,WSW,251,0.0,0.0,82,0.00,,SKC,0.00,VWS V14.01,2013-01-28 19:58:00,
2013-01-28 14:59:00,26.0,21.3,30.16,WSW,253,0.0,0.0,82,0.00,,SKC,0.00,VWS V14.01,2013-01-28 19:59:00,
2013-01-28 15:00:00,26.0,21.3,30.16,WSW,253,0.0,0.0,82,0.00,,SKC,0.00,VWS V14.01,2013-01-28 20:00:00,
2013-01-28 15:01:00,26.0,21.6,30.16,SW,227,1.0,2.0,83,0.00,,SKC,0.00,VWS V14.01,2013-01-28 20:01:00,
2013-01-28 15:03:00,26.0,21.8,30.16,SW,227,0.0,2.0,84,0.00,,SKC,0.00,VWS V14.01,2013-01-28 20:03:00,
2013-01-28 15:04:00,26.0,21.8,30.16,SW,227,0.0,2.0,84,0.00,,SKC,0.00,VWS V14.01,2013-01-28 20:04:00,
2013-01-28 15:05:00,26.0,21.8,30.16,SW,229,0.0,2.0,84,0.00,,SKC,0.00,VWS V14.01,2013-01-28 20:05:00,
2013-01-28 15:06:00,26.0,22.1,30.16,SW,230,3.0,3.0,85,0.00,,SKC,0.00,VWS V14.01,2013-01-28 20:06:00,
2013-01-28 15:08:00,26.0,22.1,30.16,SW,229,0.0,3.0,85,0.00,,SKC,0.00,VWS V14.01,2013-01-28 20:08:00,
2013-01-28 15:09:00,25.8,21.9,30.16,SW,236,0.0,3.0,85,0.00,,SKC,0.00,VWS V14.01,2013-01-28 20:09:00,
2013-01-28 15:10:00,25.8,21.9,30.16,SW,232,0.0,0.0,85,0.00,,SKC,0.00,VWS V14.01,2013-01-28 20:10:00,
2013-01-28 15:12:00,25.8,21.9,30.16,SW,222,1.0,4.0,85,0.00,,SKC,0.00,VWS V14.01,2013-01-28 20:12:00,
2013-01-28 15:14:00,25.8,22.2,30.14,SW,233,4.0,5.0,86,0.00,,SKC,0.00,VWS V14.01,2013-01-28 20:14:00,
2013-01-28 15:15:00,25.8,22.2,30.14,SW,233,0.0,1.0,86,0.00,,SKC,0.00,VWS V14.01,2013-01-28 20:15:00,
2013-01-28 15:17:00,25.8,22.2,30.14,SW,233,0.0,1.0,86,0.00,,SKC,0.00,VWS V14.01,2013-01-28 20:17:00,
2013-01-28 15:19:00,25.8,22.5,30.14,SW,230,0.0,1.0,87,0.00,,SKC,0.00,VWS V14.01,2013-01-28 20:19:00,
2013-01-28 15:20:00,25.8,22.5,30.14,SW,232,0.0,0.0,87,0.00,,SKC,0.00,VWS V14.01,2013-01-28 20:20:00,
2013-01-28 15:22:00,25.8,22.5,30.14,SW,233,0.0,0.0,87,0.00,,SKC,0.00,VWS V14.01,2013-01-28 20:22:00,
2013-01-28 15:24:00,26.0,22.7,30.14,SW,232,0.0,0.0,87,0.00,,SKC,0.00,VWS V14.01,2013-01-28 20:24:00,
2013-01-28 15:25:00,26.0,22.7,30.14,SW,233,0.0,0.0,87,0.00,,SKC,0.00,VWS V14.01,2013-01-28 20:25:00,
2013-01-28 15:27:00,26.0,22.9,30.14,SW,233,0.0,0.0,88,0.00,,SKC,0.00,VWS V14.01,2013-01-28 20:27:00,
2013-01-28 15:29:00,26.0,22.9,30.13,SW,234,0.0,0.0,88,0.00,,SKC,0.00,VWS V14.01,2013-01-28 20:29:00,
2013-01-28 15:30:00,26.0,22.9,30.13,SW,233,0.0,0.0,88,0.00,,SKC,0.00,VWS V14.01,2013-01-28 20:30:00,
2013-01-28 15:31:00,26.0,22.9,30.13,SW,232,0.0,0.0,88,0.00,,SKC,0.00,VWS V14.01,2013-01-28 20:31:00,
2013-01-28 15:32:00,26.1,23.0,30.13,SW,233,0.0,0.0,88,0.00,,SKC,0.00,VWS V14.01,2013-01-28 20:32:00,
2013-01-28 15:34:00,26.1,23.0,30.13,SW,234,0.0,0.0,88,0.00,,SKC,0.00,VWS V14.01,2013-01-28 20:34:00,
2013-01-28 15:35:00,26.1,23.3,30.13,SW,229,1.0,2.0,89,0.00,,SKC,0.00,VWS V14.01,2013-01-28 20:35:00,
2013-01-28 15:36:00,26.1,23.3,30.13,SW,226,0.0,2.0,89,0.00,,SKC,0.00,VWS V14.01,2013-01-28 20:36:00,
2013-01-28 15:37:00,26.1,23.3,30.13,SW,227,0.0,2.0,89,0.00,,SKC,0.00,VWS V14.01,2013-01-28 20:37:00,
2013-01-28 15:39:00,26.1,23.3,30.13,SW,226,0.0,0.0,89,0.00,,SKC,0.00,VWS V14.01,2013-01-28 20:39:00,
2013-01-28 15:40:00,26.1,23.3,30.13,SW,226,0.0,2.0,89,0.00,,SKC,0.00,VWS V14.01,2013-01-28 20:40:00,
2013-01-28 15:41:00,26.1,23.3,30.13,SW,226,0.0,0.0,89,0.00,,SKC,0.00,VWS V14.01,2013-01-28 20:41:00,
2013-01-28 15:43:00,26.3,23.5,30.13,SW,226,0.0,1.0,89,0.00,,SKC,0.00,VWS V14.01,2013-01-28 20:43:00,
2013-01-28 15:44:00,26.1,23.3,30.12,SW,227,0.0,0.0,89,0.00,,SKC,0.00,VWS V14.01,2013-01-28 20:44:00,
2013-01-28 15:45:00,26.1,23.3,30.12,SW,223,0.0,1.0,89,0.00,,SKC,0.00,VWS V14.01,2013-01-28 20:45:00,
2013-01-28 15:46:00,26.1,23.3,30.12,SW,226,0.0,0.0,89,0.00,,SKC,0.00,VWS V14.01,2013-01-28 20:46:00,
2013-01-28 15:47:00,26.3,23.5,30.12,SW,224,0.0,0.0,89,0.00,,SKC,0.00,VWS V14.01,2013-01-28 20:47:00,
2013-01-28 15:48:00,26.3,23.5,30.12,SW,224,0.0,0.0,89,0.00,,SKC,0.00,VWS V14.01,2013-01-28 20:48:00,
2013-01-28 15:50:00,26.3,23.5,30.12,SW,224,0.0,0.0,89,0.00,,SKC,0.00,VWS V14.01,2013-01-28 20:50:00,
2013-01-28 15:51:00,26.1,23.3,30.12,SW,227,0.0,0.0,89,0.00,,SKC,0.00,VWS V14.01,2013-01-28 20:51:00,
2013-01-28 15:52:00,26.1,23.3,30.12,SW,233,0.0,0.0,89,0.00,,SKC,0.00,VWS V14.01,2013-01-28 20:52:00,
2013-01-28 15:53:00,26.1,23.3,30.12,SW,220,0.0,0.0,89,0.00,,SKC,0.00,VWS V14.01,2013-01-28 20:53:00,
2013-01-28 15:55:00,26.3,23.5,30.12,SW,220,0.0,0.0,89,0.00,,SKC,0.00,VWS V14.01,2013-01-28 20:55:00,
2013-01-28 15:56:00,26.3,23.5,30.12,SW,222,0.0,0.0,89,0.00,,SKC,0.00,VWS V14.01,2013-01-28 20:56:00,
2013-01-28 15:57:00,26.1,23.3,30.12,SW,220,0.0,0.0,89,0.00,,SKC,0.00,VWS V14.01,2013-01-28 20:57:00,
2013-01-28 15:58:00,26.1,23.3,30.12,SW,220,0.0,0.0,89,0.00,,SKC,0.00,VWS V14.01,2013-01-28 20:58:00,
2013-01-28 16:00:00,26.1,23.3,30.12,SW,220,0.0,0.0,89,0.00,,SKC,0.00,VWS V14.01,2013-01-28 21:00:00,
2013-01-28 16:02:00,26.1,23.3,30.12,SW,223,0.0,0.0,89,0.00,,SKC,0.00,VWS V14.01,2013-01-28 21:02:00,
2013-01-28 16:03:00,26.1,23.3,30.12,SW,223,0.0,0.0,89,0.00,,SKC,0.00,VWS V14.01,2013-01-28 21:03:00,
2013-01-28 16:05:00,26.1,23.3,30.12,SW,223,0.0,0.0,89,0.00,,SKC,0.00,VWS V14.01,2013-01-28 21:05:00,
2013-01-28 16:07:00,26.1,23.3,30.12,SW,223,0.0,2.0,89,0.00,,SKC,0.00,VWS V14.01,2013-01-28 21:07:00,
2013-01-28 16:08:00,26.1,23.3,30.12,SW,222,0.0,2.0,89,0.00,,SKC,0.00,VWS V14.01,2013-01-28 21:08:00,
2013-01-28 16:09:00,26.1,23.3,30.12,SW,222,0.0,2.0,89,0.00,,SKC,0.00,VWS V14.01,2013-01-28 21:09:00,
2013-01-28 16:10:00,26.1,23.3,30.12,SW,224,0.0,0.0,89,0.00,,SKC,0.00,VWS V14.01,2013-01-28 21:10:00,
2013-01-28 16:12:00,26.1,23.3,30.12,SW,224,0.0,0.0,89,0.00,,SKC,0.00,VWS V14.01,2013-01-28 21:12:00,
2013-01-28 16:13:00,26.1,23.3,30.12,SW,223,0.0,0.0,89,0.00,,SKC,0.00,VWS V14.01,2013-01-28 21:13:00,
2013-01-28 16:14:00,26.1,23.3,30.11,SW,222,0.0,0.0,89,0.00,,SKC,0.00,VWS V14.01,2013-01-28 21:14:00,
2013-01-28 16:15:00,26.1,23.3,30.11,SW,222,0.0,0.0,89,0.00,,SKC,0.00,VWS V14.01,2013-01-28 21:15:00,
2013-01-28 16:16:00,26.1,23.3,30.11,SW,222,0.0,0.0,89,0.00,,SKC,0.00,VWS V14.01,2013-01-28 21:16:00,
2013-01-28 16:18:00,26.1,23.3,30.11,SW,217,0.0,0.0,89,0.00,,SKC,0.00,VWS V14.01,2013-01-28 21:18:00,
2013-01-28 16:19:00,26.1,23.3,30.11,SW,222,0.0,0.0,89,0.00,,SKC,0.00,VWS V14.01,2013-01-28 21:19:00,
2013-01-28 16:20:00,26.1,23.3,30.11,SW,222,0.0,0.0,89,0.00,,SKC,0.00,VWS V14.01,2013-01-28 21:20:00,
2013-01-28 16:21:00,26.1,23.3,30.11,SW,222,0.0,0.0,89,0.00,,SKC,0.00,VWS V14.01,2013-01-28 21:21:00,
2013-01-28 16:23:00,26.1,23.6,30.11,SW,222,0.0,0.0,90,0.00,,SKC,0.00,VWS V14.01,2013-01-28 21:23:00,
2013-01-28 16:24:00,26.1,23.6,30.11,SW,223,0.0,0.0,90,0.00,,SKC,0.00,VWS V14.01,2013-01-28 21:24:00,
2013-01-28 16:25:00,26.1,23.6,30.11,SW,217,0.0,0.0,90,0.00,,SKC,0.00,VWS V14.01,2013-01-28 21:25:00,
2013-01-28 16:26:00,26.1,23.6,30.11,SW,222,0.0,0.0,90,0.00,,SKC,0.00,VWS V14.01,2013-01-28 21:26:00,
2013-01-28 16:28:00,26.0,23.5,30.11,SW,223,0.0,0.0,90,0.00,,SKC,0.00,VWS V14.01,2013-01-28 21:28:00,
2013-01-28 16:29:00,26.0,23.5,30.13,SW,220,0.0,0.0,90,0.00,,SKC,0.00,VWS V14.01,2013-01-28 21:29:00,
2013-01-28 16:30:00,26.0,23.5,30.13,SW,220,0.0,0.0,90,0.00,,SKC,0.00,VWS V14.01,2013-01-28 21:30:00,
2013-01-28 16:32:00,26.0,23.5,30.13,SW,227,0.0,0.0,90,0.00,,SKC,0.00,VWS V14.01,2013-01-28 21:32:00,
2013-01-28 16:33:00,26.0,23.5,30.13,SW,223,0.0,0.0,90,0.00,,SKC,0.00,VWS V14.01,2013-01-28 21:33:00,
2013-01-28 16:34:00,26.0,23.5,30.13,SW,222,0.0,0.0,90,0.00,,SKC,0.00,VWS V14.01,2013-01-28 21:34:00,
2013-01-28 16:35:00,26.0,23.5,30.13,SW,220,0.0,0.0,90,0.00,,SKC,0.00,VWS V14.01,2013-01-28 21:35:00,
2013-01-28 16:37:00,26.0,23.5,30.13,SW,222,0.0,0.0,90,0.00,,SKC,0.00,VWS V14.01,2013-01-28 21:37:00,
2013-01-28 16:39:00,26.0,23.5,30.13,SW,223,0.0,0.0,90,0.00,,SKC,0.00,VWS V14.01,2013-01-28 21:39:00,
2013-01-28 16:40:00,26.0,23.5,30.13,SW,223,0.0,0.0,90,0.00,,SKC,0.00,VWS V14.01,2013-01-28 21:40:00,
2013-01-28 16:41:00,26.0,23.5,30.13,SW,222,0.0,0.0,90,0.00,,SKC,0.00,VWS V14.01,2013-01-28 21:41:00,
2013-01-28 16:42:00,26.0,23.5,30.13,SW,227,0.0,0.0,90,0.00,,SKC,0.00,VWS V14.01,2013-01-28 21:42:00,
2013-01-28 16:44:00,26.1,23.6,30.12,SW,222,0.0,0.0,90,0.00,,SKC,0.00,VWS V14.01,2013-01-28 21:44:00,
2013-01-28 16:45:00,26.1,23.6,30.12,SW,219,0.0,0.0,90,0.00,,SKC,0.00,VWS V14.01,2013-01-28 21:45:00,
2013-01-28 16:46:00,26.1,23.6,30.12,SW,222,0.0,0.0,90,0.00,,SKC,0.00,VWS V14.01,2013-01-28 21:46:00,
2013-01-28 16:47:00,26.1,23.6,30.12,SW,227,0.0,0.0,90,0.00,,SKC,0.00,VWS V14.01,2013-01-28 21:47:00,
2013-01-28 16:49:00,26.0,23.5,30.12,SW,219,0.0,0.0,90,0.00,,SKC,0.00,VWS V14.01,2013-01-28 21:49:00,
2013-01-28 16:50:00,26.0,23.5,30.12,SW,222,0.0,0.0,90,0.00,,SKC,0.00,VWS V14.01,2013-01-28 21:50:00,
2013-01-28 16:51:00,26.0,23.5,30.12,SW,222,0.0,0.0,90,0.00,,SKC,0.00,VWS V14.01,2013-01-28 21:51:00,
2013-01-28 16:53:00,26.0,23.5,30.12,SW,223,0.0,0.0,90,0.00,,SKC,0.00,VWS V14.01,2013-01-28 21:53:00,
2013-01-28 16:54:00,26.0,23.5,30.12,SW,223,0.0,0.0,90,0.00,,SKC,0.00,VWS V14.01,2013-01-28 21:54:00,
2013-01-28 16:55:00,26.0,23.5,30.12,SW,223,0.0,0.0,90,0.00,,SKC,0.00,VWS V14.01,2013-01-28 21:55:00,
2013-01-28 16:56:00,26.0,23.5,30.12,SW,223,0.0,0.0,90,0.00,,SKC,0.00,VWS V14.01,2013-01-28 21:56:00,
2013-01-28 16:58:00,26.0,23.5,30.10,SW,227,3.0,3.0,90,0.00,,SKC,0.00,VWS V14.01,2013-01-28 21:58:00,
2013-01-28 17:00:00,26.0,23.5,30.10,SW,227,0.0,0.0,90,0.00,,SKC,0.00,VWS V14.01,2013-01-28 22:00:00,
2013-01-28 17:01:00,26.0,23.5,30.10,SW,227,0.0,0.0,90,0.00,,SKC,0.00,VWS V14.01,2013-01-28 22:01:00,
2013-01-28 17:04:00,26.0,23.5,30.10,SW,229,0.0,3.0,90,0.00,,SKC,0.00,VWS V14.01,2013-01-28 22:04:00,
2013-01-28 17:05:00,26.0,23.5,30.10,SW,233,0.0,0.0,90,0.00,,SKC,0.00,VWS V14.01,2013-01-28 22:05:00,
2013-01-28 17:06:00,26.0,23.5,30.10,SW,229,0.0,0.0,90,0.00,,SKC,0.00,VWS V14.01,2013-01-28 22:06:00,
2013-01-28 17:07:00,26.0,23.5,30.10,SW,229,0.0,0.0,90,0.00,,SKC,0.00,VWS V14.01,2013-01-28 22:07:00,
2013-01-28 17:09:00,26.0,23.5,30.10,SW,233,0.0,0.0,90,0.00,,SKC,0.00,VWS V14.01,2013-01-28 22:09:00,
2013-01-28 17:10:00,26.0,23.5,30.10,SW,233,0.0,0.0,90,0.00,,SKC,0.00,VWS V14.01,2013-01-28 22:10:00,
2013-01-28 17:11:00,26.0,23.5,30.10,SW,229,0.0,0.0,90,0.00,,SKC,0.00,VWS V14.01,2013-01-28 22:11:00,
2013-01-28 17:12:00,26.0,23.5,30.10,SW,229,0.0,0.0,90,0.00,,SKC,0.00,VWS V14.01,2013-01-28 22:12:00,
2013-01-28 17:14:00,26.0,23.5,30.09,SW,226,2.0,3.0,90,0.00,,SKC,0.00,VWS V14.01,2013-01-28 22:14:00,
2013-01-28 17:15:00,26.0,23.5,30.09,SW,226,2.0,3.0,90,0.00,,SKC,0.00,VWS V14.01,2013-01-28 22:15:00,
2013-01-28 17:16:00,26.0,23.5,30.09,SW,226,0.0,2.0,90,0.00,,SKC,0.00,VWS V14.01,2013-01-28 22:16:00,
2013-01-28 17:17:00,26.0,23.5,30.09,SW,229,0.0,2.0,90,0.00,,SKC,0.00,VWS V14.01,2013-01-28 22:17:00,
2013-01-28 17:19:00,26.0,23.5,30.09,SW,227,3.0,3.0,90,0.00,,SKC,0.00,VWS V14.01,2013-01-28 22:19:00,
2013-01-28 17:20:00,26.0,23.5,30.09,SW,226,0.0,2.0,90,0.00,,SKC,0.00,VWS V14.01,2013-01-28 22:20:00,
2013-01-28 17:22:00,26.0,23.5,30.09,WSW,237,0.0,3.0,90,0.00,,SKC,0.00,VWS V14.01,2013-01-28 22:22:00,
2013-01-28 17:25:00,26.0,23.5,30.09,SW,236,0.0,0.0,90,0.00,,SKC,0.00,VWS V14.01,2013-01-28 22:25:00,
2013-01-28 17:27:00,26.0,23.7,30.09,SW,229,0.0,3.0,91,0.00,,SKC,0.00,VWS V14.01,2013-01-28 22:27:00,
2013-01-28 17:30:00,26.0,23.7,30.08,SW,233,0.0,0.0,91,0.00,,SKC,0.00,VWS V14.01,2013-01-28 22:30:00,
2013-01-28 17:32:00,26.0,23.7,30.08,SW,232,0.0,0.0,91,0.00,,SKC,0.00,VWS V14.01,2013-01-28 22:32:00,
2013-01-28 17:33:00,26.0,23.7,30.08,SW,230,0.0,0.0,91,0.00,,SKC,0.00,VWS V14.01,2013-01-28 22:33:00,
2013-01-28 17:35:00,26.0,23.7,30.08,SW,232,1.0,1.0,91,0.00,,SKC,0.00,VWS V14.01,2013-01-28 22:35:00,
2013-01-28 17:38:00,25.8,23.5,30.08,SW,229,1.0,3.0,91,0.00,,SKC,0.00,VWS V14.01,2013-01-28 22:38:00,
2013-01-28 17:40:00,25.8,23.5,30.08,SW,229,0.0,3.0,91,0.00,,SKC,0.00,VWS V14.01,2013-01-28 22:40:00,
2013-01-28 17:41:00,25.8,23.5,30.08,SW,229,0.0,2.0,91,0.00,,SKC,0.00,VWS V14.01,2013-01-28 22:41:00,
2013-01-28 17:43:00,25.8,23.5,30.08,SW,229,0.0,2.0,91,0.00,,SKC,0.00,VWS V14.01,2013-01-28 22:43:00,
2013-01-28 17:44:00,25.8,23.5,30.07,SW,227,0.0,2.0,91,0.00,,SKC,0.00,VWS V14.01,2013-01-28 22:44:00,
2013-01-28 17:45:00,25.8,23.5,30.07,SW,232,1.0,3.0,91,0.00,,SKC,0.00,VWS V14.01,2013-01-28 22:45:00,
2013-01-28 17:46:00,25.8,23.5,30.07,SW,226,0.0,2.0,91,0.00,,SKC,0.00,VWS V14.01,2013-01-28 22:46:00,
2013-01-28 17:48:00,25.8,23.5,30.07,SW,227,0.0,2.0,91,0.00,,SKC,0.00,VWS V14.01,2013-01-28 22:48:00,
2013-01-28 17:49:00,25.8,23.5,30.07,SW,229,0.0,2.0,91,0.00,,SKC,0.00,VWS V14.01,2013-01-28 22:49:00,
2013-01-28 17:50:00,25.8,23.5,30.07,SW,229,0.0,2.0,91,0.00,,SKC,0.00,VWS V14.01,2013-01-28 22:50:00,
2013-01-28 17:51:00,25.8,23.5,30.07,SW,227,0.0,0.0,91,0.00,,SKC,0.00,VWS V14.01,2013-01-28 22:51:00,
2013-01-28 17:53:00,25.8,23.5,30.07,SW,229,0.0,0.0,91,0.00,,SKC,0.00,VWS V14.01,2013-01-28 22:53:00,
2013-01-28 17:54:00,25.8,23.5,30.07,SW,227,0.0,0.0,91,0.00,,SKC,0.00,VWS V14.01,2013-01-28 22:54:00,
2013-01-28 17:55:00,25.8,23.5,30.07,SW,227,0.0,0.0,91,0.00,,SKC,0.00,VWS V14.01,2013-01-28 22:55:00,
2013-01-28 17:56:00,25.8,23.5,30.07,SW,227,0.0,0.0,91,0.00,,SKC,0.00,VWS V14.01,2013-01-28 22:56:00,
2013-01-28 17:59:00,25.8,23.5,30.06,SW,227,0.0,0.0,91,0.00,,SKC,0.00,VWS V14.01,2013-01-28 22:59:00,
2013-01-28 18:00:00,25.8,23.5,30.06,SW,227,0.0,0.0,91,0.00,,SKC,0.00,VWS V14.01,2013-01-28 23:00:00,
2013-01-28 18:02:00,25.8,23.5,30.06,SW,229,0.0,3.0,91,0.00,,SKC,0.00,VWS V14.01,2013-01-28 23:02:00,
2013-01-28 18:04:00,25.8,23.5,30.06,SW,224,0.0,3.0,91,0.00,,SKC,0.00,VWS V14.01,2013-01-28 23:04:00,
2013-01-28 18:05:00,25.8,23.5,30.06,SW,226,0.0,3.0,91,0.00,,SKC,0.00,VWS V14.01,2013-01-28 23:05:00,
2013-01-28 18:07:00,25.8,23.5,30.06,SW,224,0.0,0.0,91,0.00,,SKC,0.00,VWS V14.01,2013-01-28 23:07:00,
2013-01-28 18:09:00,25.8,23.5,30.06,SW,229,0.0,0.0,91,0.00,,SKC,0.00,VWS V14.01,2013-01-28 23:09:00,
2013-01-28 18:10:00,25.8,23.5,30.06,SW,229,0.0,0.0,91,0.00,,SKC,0.00,VWS V14.01,2013-01-28 23:10:00,
2013-01-28 18:13:00,25.8,23.8,30.06,SW,227,1.0,2.0,92,0.00,,SKC,0.00,VWS V14.01,2013-01-28 23:13:00,
2013-01-28 18:14:00,25.8,23.8,30.05,SW,234,0.0,2.0,92,0.00,,SKC,0.00,VWS V14.01,2013-01-28 23:14:00,
2013-01-28 18:15:00,25.8,23.8,30.05,SW,233,0.0,2.0,92,0.00,,SKC,0.00,VWS V14.01,2013-01-28 23:15:00,
2013-01-28 18:18:00,26.0,24.0,30.05,SW,227,0.0,0.0,92,0.00,,SKC,0.00,VWS V14.01,2013-01-28 23:18:00,
2013-01-28 18:19:00,26.0,24.0,30.05,SW,230,0.0,0.0,92,0.00,,SKC,0.00,VWS V14.01,2013-01-28 23:19:00,
2013-01-28 18:20:00,26.0,24.0,30.05,SW,230,0.0,0.0,92,0.00,,SKC,0.00,VWS V14.01,2013-01-28 23:20:00,
2013-01-28 18:23:00,26.0,24.0,30.05,SW,227,0.0,0.0,92,0.00,,SKC,0.00,VWS V14.01,2013-01-28 23:23:00,
2013-01-28 18:24:00,26.0,24.0,30.05,SW,229,0.0,0.0,92,0.00,,SKC,0.00,VWS V14.01,2013-01-28 23:24:00,
2013-01-28 18:25:00,26.0,24.0,30.05,SW,227,0.0,0.0,92,0.00,,SKC,0.00,VWS V14.01,2013-01-28 23:25:00,
2013-01-28 18:28:00,26.0,24.0,30.05,SW,230,0.0,2.0,92,0.00,,SKC,0.00,VWS V14.01,2013-01-28 23:28:00,
2013-01-28 18:29:00,26.0,24.0,30.05,SW,229,0.0,2.0,92,0.00,,SKC,0.00,VWS V14.01,2013-01-28 23:29:00,
2013-01-28 18:30:00,26.0,24.0,30.05,SW,229,0.0,0.0,92,0.00,,SKC,0.00,VWS V14.01,2013-01-28 23:30:00,
2013-01-28 18:31:00,26.0,24.0,30.05,SW,224,0.0,0.0,92,0.00,,SKC,0.00,VWS V14.01,2013-01-28 23:31:00,
2013-01-28 18:33:00,26.0,24.0,30.05,SW,229,0.0,0.0,92,0.00,,SKC,0.00,VWS V14.01,2013-01-28 23:33:00,
2013-01-28 18:34:00,26.0,24.0,30.05,SW,232,0.0,0.0,92,0.00,,SKC,0.00,VWS V14.01,2013-01-28 23:34:00,
2013-01-28 18:35:00,26.0,24.0,30.05,SW,230,0.0,0.0,92,0.00,,SKC,0.00,VWS V14.01,2013-01-28 23:35:00,
2013-01-28 18:36:00,26.0,24.0,30.05,SW,227,0.0,0.0,92,0.00,,SKC,0.00,VWS V14.01,2013-01-28 23:36:00,
2013-01-28 18:39:00,26.0,24.0,30.05,SW,227,0.0,0.0,92,0.00,,SKC,0.00,VWS V14.01,2013-01-28 23:39:00,
2013-01-28 18:40:00,26.0,24.0,30.05,SW,227,0.0,0.0,92,0.00,,SKC,0.00,VWS V14.01,2013-01-28 23:40:00,
2013-01-28 18:41:00,26.0,24.0,30.05,SW,227,0.0,0.0,92,0.00,,SKC,0.00,VWS V14.01,2013-01-28 23:41:00,
2013-01-28 18:44:00,26.0,24.0,30.06,SW,224,0.0,0.0,92,0.00,,SKC,0.00,VWS V14.01,2013-01-28 23:44:00,
2013-01-28 18:45:00,26.0,24.0,30.06,SW,223,0.0,0.0,92,0.00,,SKC,0.00,VWS V14.01,2013-01-28 23:45:00,
2013-01-28 18:46:00,26.0,24.0,30.06,SW,226,0.0,0.0,92,0.00,,SKC,0.00,VWS V14.01,2013-01-28 23:46:00,
2013-01-28 18:47:00,26.0,24.0,30.06,SW,226,0.0,0.0,92,0.00,,SKC,0.00,VWS V14.01,2013-01-28 23:47:00,
2013-01-28 18:50:00,26.0,24.0,30.06,SW,226,0.0,0.0,92,0.00,,SKC,0.00,VWS V14.01,2013-01-28 23:50:00,
2013-01-28 18:51:00,26.0,24.0,30.06,SW,229,0.0,0.0,92,0.00,,SKC,0.00,VWS V14.01,2013-01-28 23:51:00,
2013-01-28 18:52:00,26.0,24.0,30.06,SW,229,0.0,0.0,92,0.00,,SKC,0.00,VWS V14.01,2013-01-28 23:52:00,
2013-01-28 18:55:00,26.0,24.0,30.06,SW,227,0.0,0.0,92,0.00,,SKC,0.00,VWS V14.01,2013-01-28 23:55:00,
2013-01-28 18:56:00,26.0,24.0,30.06,SW,227,0.0,0.0,92,0.00,,SKC,0.00,VWS V14.01,2013-01-28 23:56:00,
2013-01-28 18:57:00,26.0,24.0,30.06,SW,234,0.0,0.0,92,0.00,,SKC,0.00,VWS V14.01,2013-01-28 23:57:00,
2013-01-28 19:00:00,26.1,24.1,30.05,SW,227,0.0,0.0,92,0.00,,SKC,0.00,VWS V14.01,2013-01-29 00:00:00,
2013-01-28 19:01:00,26.1,24.1,30.05,SW,227,0.0,0.0,92,0.00,,SKC,0.00,VWS V14.01,2013-01-29 00:01:00,
2013-01-28 19:02:00,26.1,24.1,30.05,SW,224,0.0,0.0,92,0.00,,SKC,0.00,VWS V14.01,2013-01-29 00:02:00,
2013-01-28 19:05:00,26.1,24.1,30.05,SW,230,0.0,2.0,92,0.00,,SKC,0.00,VWS V14.01,2013-01-29 00:05:00,
2013-01-28 19:06:00,26.1,24.1,30.05,SW,229,0.0,2.0,92,0.00,,SKC,0.00,VWS V14.01,2013-01-29 00:06:00,
2013-01-28 19:08:00,26.1,24.1,30.05,SW,232,0.0,2.0,92,0.00,,SKC,0.00,VWS V14.01,2013-01-29 00:08:00,
2013-01-28 19:10:00,26.1,24.1,30.05,SW,230,0.0,0.0,92,0.00,,SKC,0.00,VWS V14.01,2013-01-29 00:10:00,
2013-01-28 19:11:00,26.1,24.1,30.05,SW,232,0.0,0.0,92,0.00,,SKC,0.00,VWS V14.01,2013-01-29 00:11:00,
2013-01-28 19:13:00,26.1,24.1,30.05,SW,229,0.0,0.0,92,0.00,,SKC,0.00,VWS V14.01,2013-01-29 00:13:00,
2013-01-28 19:14:00,26.1,24.1,30.03,SW,230,0.0,0.0,92,0.00,,SKC,0.00,VWS V14.01,2013-01-29 00:14:00,
2013-01-28 19:15:00,26.1,24.1,30.03,SW,232,1.0,1.0,92,0.00,,SKC,0.00,VWS V14.01,2013-01-29 00:15:00,
2013-01-28 19:17:00,26.1,24.1,30.03,SW,230,0.0,1.0,92,0.00,,SKC,0.00,VWS V14.01,2013-01-29 00:17:00,
2013-01-28 19:18:00,26.1,24.1,30.03,SW,229,0.0,1.0,92,0.00,,SKC,0.00,VWS V14.01,2013-01-29 00:18:00,
2013-01-28 19:20:00,26.1,24.1,30.03,SW,232,0.0,0.0,92,0.00,,SKC,0.00,VWS V14.01,2013-01-29 00:20:00,
2013-01-28 19:22:00,26.1,24.1,30.03,SW,230,0.0,0.0,92,0.00,,SKC,0.00,VWS V14.01,2013-01-29 00:22:00,
2013-01-28 19:23:00,26.1,24.1,30.03,SW,230,0.0,0.0,92,0.00,,SKC,0.00,VWS V14.01,2013-01-29 00:23:00,
2013-01-28 19:25:00,26.3,24.3,30.03,SW,233,0.0,0.0,92,0.00,,SKC,0.00,VWS V14.01,2013-01-29 00:25:00,
2013-01-28 19:26:00,26.3,24.3,30.03,SW,226,0.0,0.0,92,0.00,,SKC,0.00,VWS V14.01,2013-01-29 00:26:00,
2013-01-28 19:27:00,26.3,24.3,30.03,SW,229,0.0,0.0,92,0.00,,SKC,0.00,VWS V14.01,2013-01-29 00:27:00,
2013-01-28 19:29:00,26.3,24.3,30.03,SW,233,0.0,0.0,92,0.00,,SKC,0.00,VWS V14.01,2013-01-29 00:29:00,
2013-01-28 19:30:00,26.3,24.3,30.03,SW,229,0.0,0.0,92,0.00,,SKC,0.00,VWS V14.01,2013-01-29 00:30:00,
2013-01-28 19:31:00,26.3,24.3,30.03,SW,226,0.0,0.0,92,0.00,,SKC,0.00,VWS V14.01,2013-01-29 00:31:00,
2013-01-28 19:32:00,26.3,24.3,30.03,SW,226,2.0,2.0,92,0.00,,SKC,0.00,VWS V14.01,2013-01-29 00:32:00,
2013-01-28 19:34:00,26.3,24.3,30.03,WSW,237,0.0,0.0,92,0.00,,SKC,0.00,VWS V14.01,2013-01-29 00:34:00,
2013-01-28 19:35:00,26.3,24.3,30.03,WSW,237,0.0,0.0,92,0.00,,SKC,0.00,VWS V14.01,2013-01-29 00:35:00,
2013-01-28 19:36:00,26.3,24.3,30.03,WSW,244,0.0,0.0,92,0.00,,SKC,0.00,VWS V14.01,2013-01-29 00:36:00,
2013-01-28 19:37:00,26.3,24.3,30.03,WSW,239,0.0,0.0,92,0.00,,SKC,0.00,VWS V14.01,2013-01-29 00:37:00,
2013-01-28 19:39:00,26.4,24.4,30.03,SW,236,0.0,0.0,92,0.00,,SKC,0.00,VWS V14.01,2013-01-29 00:39:00,
2013-01-28 19:40:00,26.4,24.4,30.03,WSW,240,0.0,0.0,92,0.00,,SKC,0.00,VWS V14.01,2013-01-29 00:40:00,
2013-01-28 19:42:00,26.4,24.4,30.03,WSW,243,0.0,0.0,92,0.00,,SKC,0.00,VWS V14.01,2013-01-29 00:42:00,
2013-01-28 19:43:00,26.4,24.4,30.03,WSW,241,0.0,0.0,92,0.00,,SKC,0.00,VWS V14.01,2013-01-29 00:43:00,
2013-01-28 19:45:00,26.4,24.4,30.04,WSW,240,0.0,0.0,92,0.00,,SKC,0.00,VWS V14.01,2013-01-29 00:45:00,
2013-01-28 19:47:00,26.4,24.4,30.04,SW,236,0.0,0.0,92,0.00,,SKC,0.00,VWS V14.01,2013-01-29 00:47:00,
2013-01-28 19:48:00,26.4,24.4,30.04,SW,236,0.0,0.0,92,0.00,,SKC,0.00,VWS V14.01,2013-01-29 00:48:00,
2013-01-28 19:50:00,26.4,24.4,30.04,WSW,239,0.0,0.0,92,0.00,,SKC,0.00,VWS V14.01,2013-01-29 00:50:00,
2013-01-28 19:51:00,26.4,24.4,30.04,WSW,239,0.0,0.0,92,0.00,,SKC,0.00,VWS V14.01,2013-01-29 00:51:00,
2013-01-28 19:52:00,26.4,24.6,30.04,WSW,240,0.0,0.0,93,0.00,,SKC,0.00,VWS V14.01,2013-01-29 00:52:00,
2013-01-28 19:55:00,26.6,24.6,30.04,WSW,241,0.0,0.0,92,0.00,,SKC,0.00,VWS V14.01,2013-01-29 00:55:00,
2013-01-28 19:56:00,26.6,24.6,30.04,WSW,239,0.0,0.0,92,0.00,,SKC,0.00,VWS V14.01,2013-01-29 00:56:00,
2013-01-28 19:58:00,26.6,24.9,30.04,WSW,241,0.0,0.0,93,0.00,,SKC,0.00,VWS V14.01,2013-01-29 00:58:00,
2013-01-28 20:00:00,26.6,24.9,30.01,WSW,240,0.0,0.0,93,0.00,,SKC,0.00,VWS V14.01,2013-01-29 01:00:00,
2013-01-28 20:01:00,26.6,24.9,30.01,WSW,240,0.0,0.0,93,0.00,,SKC,0.00,VWS V14.01,2013-01-29 01:01:00,
2013-01-28 20:03:00,26.6,24.9,30.01,WSW,240,0.0,0.0,93,0.00,,SKC,0.00,VWS V14.01,2013-01-29 01:03:00,
2013-01-28 20:05:00,26.6,24.9,30.01,WSW,240,0.0,0.0,93,0.00,,SKC,0.00,VWS V14.01,2013-01-29 01:05:00,
2013-01-28 20:06:00,26.6,24.9,30.01,WSW,240,0.0,0.0,93,0.00,,SKC,0.00,VWS V14.01,2013-01-29 01:06:00,
2013-01-28 20:08:00,26.6,24.9,30.01,WSW,240,0.0,0.0,93,0.00,,SKC,0.00,VWS V14.01,2013-01-29 01:08:00,
2013-01-28 20:10:00,26.7,25.0,30.01,WSW,240,0.0,0.0,93,0.00,,SKC,0.00,VWS V14.01,2013-01-29 01:10:00,
2013-01-28 20:11:00,26.7,25.0,30.01,WSW,237,0.0,0.0,93,0.00,,SKC,0.00,VWS V14.01,2013-01-29 01:11:00,
2013-01-28 20:12:00,26.7,25.0,30.01,WSW,243,0.0,0.0,93,0.00,,SKC,0.00,VWS V14.01,2013-01-29 01:12:00,
2013-01-28 20:13:00,26.7,25.0,30.01,WSW,239,0.0,0.0,93,0.00,,SKC,0.00,VWS V14.01,2013-01-29 01:13:00,
2013-01-28 20:15:00,26.7,25.0,30.02,WSW,248,0.0,0.0,93,0.00,,SKC,0.00,VWS V14.01,2013-01-29 01:15:00,
2013-01-28 20:16:00,26.7,25.0,30.02,WSW,239,0.0,0.0,93,0.00,,SKC,0.00,VWS V14.01,2013-01-29 01:16:00,
2013-01-28 20:18:00,26.7,25.0,30.02,WSW,240,0.0,0.0,93,0.00,,SKC,0.00,VWS V14.01,2013-01-29 01:18:00,
2013-01-28 20:20:00,26.7,25.0,30.02,WSW,243,0.0,0.0,93,0.00,,SKC,0.00,VWS V14.01,2013-01-29 01:20:00,
2013-01-28 20:22:00,26.7,25.0,30.02,WSW,240,0.0,0.0,93,0.00,,SKC,0.00,VWS V14.01,2013-01-29 01:22:00,
2013-01-28 20:23:00,26.9,25.1,30.02,WSW,244,0.0,1.0,93,0.00,,SKC,0.00,VWS V14.01,2013-01-29 01:23:00,
2013-01-28 20:24:00,26.9,25.1,30.02,WSW,240,0.0,1.0,93,0.00,,SKC,0.00,VWS V14.01,2013-01-29 01:24:00,
2013-01-28 20:25:00,26.9,25.1,30.02,WSW,248,0.0,1.0,93,0.00,,SKC,0.00,VWS V14.01,2013-01-29 01:25:00,
2013-01-28 20:26:00,26.9,25.1,30.02,WSW,239,0.0,0.0,93,0.00,,SKC,0.00,VWS V14.01,2013-01-29 01:26:00,
2013-01-28 20:27:00,26.9,25.1,30.02,WSW,237,0.0,0.0,93,0.00,,SKC,0.00,VWS V14.01,2013-01-29 01:27:00,
2013-01-28 20:28:00,26.9,25.1,30.02,WSW,237,0.0,0.0,93,0.00,,SKC,0.00,VWS V14.01,2013-01-29 01:28:00,
2013-01-28 20:29:00,26.9,25.1,30.00,WSW,237,0.0,0.0,93,0.00,,SKC,0.00,VWS V14.01,2013-01-29 01:29:00,
2013-01-28 20:30:00,27.0,25.2,30.00,WSW,240,0.0,0.0,93,0.00,,SKC,0.00,VWS V14.01,2013-01-29 01:30:00,
2013-01-28 20:32:00,27.0,25.2,30.00,WSW,240,0.0,0.0,93,0.00,,SKC,0.00,VWS V14.01,2013-01-29 01:32:00,
2013-01-28 20:34:00,27.0,25.2,30.00,WSW,237,0.0,0.0,93,0.00,,SKC,0.00,VWS V14.01,2013-01-29 01:34:00,
2013-01-28 20:35:00,27.0,25.2,30.00,WSW,237,0.0,0.0,93,0.00,,SKC,0.00,VWS V14.01,2013-01-29 01:35:00,
2013-01-28 20:37:00,27.0,25.2,30.00,WSW,246,0.0,0.0,93,0.00,,SKC,0.00,VWS V14.01,2013-01-29 01:37:00,
2013-01-28 20:39:00,27.2,25.5,30.00,WSW,240,0.0,0.0,93,0.00,,SKC,0.00,VWS V14.01,2013-01-29 01:39:00,
2013-01-28 20:40:00,27.2,25.5,30.00,WSW,239,0.0,0.0,93,0.00,,SKC,0.00,VWS V14.01,2013-01-29 01:40:00,
2013-01-28 20:42:00,27.2,25.5,30.00,WSW,239,0.0,0.0,93,0.00,,SKC,0.00,VWS V14.01,2013-01-29 01:42:00,
2013-01-28 20:43:00,27.2,25.5,30.00,WSW,243,0.0,0.0,93,0.00,,SKC,0.00,VWS V14.01,2013-01-29 01:43:00,
2013-01-28 20:44:00,27.2,25.5,30.00,WSW,243,0.0,0.0,93,0.00,,SKC,0.00,VWS V14.01,2013-01-29 01:44:00,
2013-01-28 20:45:00,27.2,25.5,30.00,WSW,244,0.0,0.0,93,0.00,,SKC,0.00,VWS V14.01,2013-01-29 01:45:00,
2013-01-28 20:47:00,27.3,25.5,30.00,WSW,243,0.0,0.0,93,0.00,,SKC,0.00,VWS V14.01,2013-01-29 01:47:00,
2013-01-28 20:48:00,27.3,25.5,30.00,WSW,241,0.0,0.0,93,0.00,,SKC,0.00,VWS V14.01,2013-01-29 01:48:00,
2013-01-28 20:49:00,27.3,25.5,30.00,WSW,243,0.0,0.0,93,0.00,,SKC,0.00,VWS V14.01,2013-01-29 01:49:00,
2013-01-28 20:50:00,27.3,25.5,30.00,WSW,243,0.0,0.0,93,0.00,,SKC,0.00,VWS V14.01,2013-01-29 01:50:00,
2013-01-28 20:51:00,27.3,25.5,30.00,WSW,240,0.0,0.0,93,0.00,,SKC,0.00,VWS V14.01,2013-01-29 01:51:00,
2013-01-28 20:53:00,27.3,25.5,30.00,WSW,237,0.0,0.0,93,0.00,,SKC,0.00,VWS V14.01,2013-01-29 01:53:00,
2013-01-28 20:54:00,27.3,25.5,30.00,WSW,239,0.0,0.0,93,0.00,,SKC,0.00,VWS V14.01,2013-01-29 01:54:00,
2013-01-28 20:55:00,27.3,25.5,30.00,WSW,240,0.0,0.0,93,0.00,,SKC,0.00,VWS V14.01,2013-01-29 01:55:00,
2013-01-28 20:56:00,27.3,25.5,30.00,WSW,246,0.0,0.0,93,0.00,,SKC,0.00,VWS V14.01,2013-01-29 01:56:00,
2013-01-28 20:58:00,27.3,25.5,30.00,WSW,239,0.0,0.0,93,0.00,,SKC,0.00,VWS V14.01,2013-01-29 01:58:00,
2013-01-28 20:59:00,27.3,25.5,30.01,WSW,239,0.0,0.0,93,0.00,,SKC,0.00,VWS V14.01,2013-01-29 01:59:00,
2013-01-28 21:00:00,27.3,25.5,30.01,SW,234,0.0,0.0,93,0.00,,SKC,0.00,VWS V14.01,2013-01-29 02:00:00,
2013-01-28 21:02:00,27.3,25.5,30.01,WSW,240,1.0,2.0,93,0.00,,SKC,0.00,VWS V14.01,2013-01-29 02:02:00,
2013-01-28 21:03:00,27.3,25.5,30.01,WSW,239,0.0,2.0,93,0.00,,SKC,0.00,VWS V14.01,2013-01-29 02:03:00,
2013-01-28 21:04:00,27.3,25.5,30.01,WSW,239,1.0,2.0,93,0.00,,SKC,0.00,VWS V14.01,2013-01-29 02:04:00,
2013-01-28 21:05:00,27.3,25.5,30.01,WSW,240,0.0,2.0,93,0.00,,SKC,0.00,VWS V14.01,2013-01-29 02:05:00,
2013-01-28 21:08:00,27.3,25.5,30.01,WSW,239,0.0,0.0,93,0.00,,SKC,0.00,VWS V14.01,2013-01-29 02:08:00,
2013-01-28 21:09:00,27.3,25.5,30.01,WSW,240,0.0,0.0,93,0.00,,SKC,0.00,VWS V14.01,2013-01-29 02:09:00,
2013-01-28 21:10:00,27.5,25.8,30.01,WSW,237,0.0,0.0,93,0.00,,SKC,0.00,VWS V14.01,2013-01-29 02:10:00,
2013-01-28 21:13:00,27.5,25.8,30.01,WSW,240,0.0,0.0,93,0.00,,SKC,0.00,VWS V14.01,2013-01-29 02:13:00,
2013-01-28 21:14:00,27.5,25.8,29.99,WSW,237,0.0,0.0,93,0.00,,SKC,0.00,VWS V14.01,2013-01-29 02:14:00,
2013-01-28 21:15:00,27.5,25.8,29.99,SSW,195,0.0,0.0,93,0.00,,SKC,0.00,VWS V14.01,2013-01-29 02:15:00,
2013-01-28 21:18:00,27.5,25.8,29.99,SSW,192,0.0,0.0,93,0.00,,SKC,0.00,VWS V14.01,2013-01-29 02:18:00,
2013-01-28 21:19:00,27.5,25.8,29.99,South,189,0.0,0.0,93,0.00,,SKC,0.00,VWS V14.01,2013-01-29 02:19:00,
2013-01-28 21:20:00,27.5,25.8,29.99,South,191,0.0,0.0,93,0.00,,SKC,0.00,VWS V14.01,2013-01-29 02:20:00,
2013-01-28 21:23:00,27.6,25.8,29.99,South,189,0.0,0.0,93,0.00,,SKC,0.00,VWS V14.01,2013-01-29 02:23:00,
2013-01-28 21:25:00,27.6,25.8,29.99,SSW,193,0.0,0.0,93,0.00,,SKC,0.00,VWS V14.01,2013-01-29 02:25:00,
2013-01-28 21:28:00,27.6,25.8,29.99,South,185,0.0,0.0,93,0.00,,SKC,0.00,VWS V14.01,2013-01-29 02:28:00,
2013-01-28 21:30:00,27.6,25.8,29.99,South,189,0.0,0.0,93,0.00,,SKC,0.00,VWS V14.01,2013-01-29 02:30:00,
2013-01-28 21:31:00,27.6,25.8,29.99,SSW,195,0.0,0.0,93,0.00,,SKC,0.00,VWS V14.01,2013-01-29 02:31:00,
2013-01-28 21:34:00,27.6,25.8,29.99,South,191,0.0,0.0,93,0.00,,SKC,0.00,VWS V14.01,2013-01-29 02:34:00,
2013-01-28 21:35:00,27.6,25.8,29.99,SSW,193,0.0,0.0,93,0.00,,SKC,0.00,VWS V14.01,2013-01-29 02:35:00,
2013-01-28 21:36:00,27.8,26.0,29.99,SSW,192,0.0,0.0,93,0.00,,SKC,0.00,VWS V14.01,2013-01-29 02:36:00,
2013-01-28 21:39:00,27.8,26.0,29.99,SW,224,0.0,0.0,93,0.00,,SKC,0.00,VWS V14.01,2013-01-29 02:39:00,
2013-01-28 21:40:00,27.8,26.0,29.99,SW,217,0.0,0.0,93,0.00,,SKC,0.00,VWS V14.01,2013-01-29 02:40:00,
2013-01-28 21:41:00,27.8,26.0,29.99,SW,224,0.0,0.0,93,0.00,,SKC,0.00,VWS V14.01,2013-01-29 02:41:00,
2013-01-28 21:44:00,27.8,26.0,29.98,SW,233,0.0,0.0,93,0.00,,SKC,0.00,VWS V14.01,2013-01-29 02:44:00,
2013-01-28 21:45:00,27.8,26.0,29.98,SW,224,0.0,0.0,93,0.00,,SKC,0.00,VWS V14.01,2013-01-29 02:45:00,
2013-01-28 21:46:00,27.8,26.0,29.98,SW,223,0.0,0.0,93,0.00,,SKC,0.00,VWS V14.01,2013-01-29 02:46:00,
2013-01-28 21:49:00,27.8,26.0,29.98,SW,220,0.0,0.0,93,0.00,,SKC,0.00,VWS V14.01,2013-01-29 02:49:00,
2013-01-28 21:50:00,27.8,26.0,29.98,SW,223,0.0,0.0,93,0.00,,SKC,0.00,VWS V14.01,2013-01-29 02:50:00,
2013-01-28 21:51:00,27.8,26.0,29.98,SW,229,0.0,0.0,93,0.00,,SKC,0.00,VWS V14.01,2013-01-29 02:51:00,
2013-01-28 21:54:00,27.8,26.3,29.98,SW,229,0.0,0.0,94,0.00,,SKC,0.00,VWS V14.01,2013-01-29 02:54:00,
2013-01-28 21:55:00,27.8,26.3,29.98,SW,229,0.0,0.0,94,0.00,,SKC,0.00,VWS V14.01,2013-01-29 02:55:00,
2013-01-28 21:56:00,27.9,26.4,29.98,SW,226,0.0,0.0,94,0.00,,SKC,0.00,VWS V14.01,2013-01-29 02:56:00,
2013-01-28 21:59:00,27.9,26.4,29.98,SW,223,0.0,0.0,94,0.00,,SKC,0.00,VWS V14.01,2013-01-29 02:59:00,
2013-01-28 22:00:00,27.8,26.3,29.98,SW,223,0.0,0.0,94,0.00,,SKC,0.00,VWS V14.01,2013-01-29 03:00:00,
2013-01-28 22:01:00,27.8,26.0,29.98,SW,227,0.0,0.0,93,0.00,,SKC,0.00,VWS V14.01,2013-01-29 03:01:00,
2013-01-28 22:04:00,27.9,26.4,29.98,SW,215,0.0,0.0,94,0.00,,SKC,0.00,VWS V14.01,2013-01-29 03:04:00,
2013-01-28 22:05:00,27.9,26.4,29.98,SW,220,0.0,0.0,94,0.00,,SKC,0.00,VWS V14.01,2013-01-29 03:05:00,
2013-01-28 22:06:00,27.9,26.4,29.98,SW,215,0.0,0.0,94,0.00,,SKC,0.00,VWS V14.01,2013-01-29 03:06:00,
2013-01-28 22:07:00,27.9,26.4,29.98,SW,215,0.0,0.0,94,0.00,,SKC,0.00,VWS V14.01,2013-01-29 03:07:00,
2013-01-28 22:09:00,27.9,26.4,29.98,SW,215,0.0,0.0,94,0.00,,SKC,0.00,VWS V14.01,2013-01-29 03:09:00,
2013-01-28 22:10:00,27.9,26.4,29.98,SW,227,0.0,0.0,94,0.00,,SKC,0.00,VWS V14.01,2013-01-29 03:10:00,
2013-01-28 22:12:00,27.9,26.4,29.98,SW,215,0.0,0.0,94,0.00,,SKC,0.00,VWS V14.01,2013-01-29 03:12:00,
2013-01-28 22:15:00,27.9,26.4,29.97,SW,215,0.0,0.0,94,0.00,,SKC,0.00,VWS V14.01,2013-01-29 03:15:00,
2013-01-28 22:17:00,27.9,26.4,29.97,SW,222,0.0,0.0,94,0.00,,SKC,0.00,VWS V14.01,2013-01-29 03:17:00,
2013-01-28 22:20:00,27.9,26.4,29.97,SSW,212,0.0,0.0,94,0.00,,SKC,0.00,VWS V14.01,2013-01-29 03:20:00,
2013-01-28 22:21:00,27.9,26.4,29.97,SSW,209,0.0,0.0,94,0.00,,SKC,0.00,VWS V14.01,2013-01-29 03:21:00,
2013-01-28 22:22:00,27.9,26.4,29.97,SW,216,0.0,0.0,94,0.00,,SKC,0.00,VWS V14.01,2013-01-29 03:22:00,
2013-01-28 22:25:00,27.9,26.4,29.97,SW,219,0.0,0.0,94,0.00,,SKC,0.00,VWS V14.01,2013-01-29 03:25:00,
2013-01-28 22:26:00,27.9,26.4,29.97,SSW,213,0.0,0.0,94,0.00,,SKC,0.00,VWS V14.01,2013-01-29 03:26:00,
2013-01-28 22:28:00,27.9,26.4,29.97,SSW,210,0.0,0.0,94,0.00,,SKC,0.00,VWS V14.01,2013-01-29 03:28:00,
2013-01-28 22:30:00,27.9,26.4,29.98,SSW,210,0.0,0.0,94,0.00,,SKC,0.00,VWS V14.01,2013-01-29 03:30:00,
2013-01-28 22:31:00,28.1,26.6,29.98,SW,215,0.0,0.0,94,0.00,,SKC,0.00,VWS V14.01,2013-01-29 03:31:00,
2013-01-28 22:33:00,28.1,26.6,29.98,SSW,212,0.0,0.0,94,0.00,,SKC,0.00,VWS V14.01,2013-01-29 03:33:00,
2013-01-28 22:34:00,28.1,26.6,29.98,SSW,213,0.0,0.0,94,0.00,,SKC,0.00,VWS V14.01,2013-01-29 03:34:00,
2013-01-28 22:35:00,28.1,26.6,29.98,SSW,213,0.0,0.0,94,0.00,,SKC,0.00,VWS V14.01,2013-01-29 03:35:00,
2013-01-28 22:36:00,28.1,26.6,29.98,SW,219,0.0,0.0,94,0.00,,SKC,0.00,VWS V14.01,2013-01-29 03:36:00,
2013-01-28 22:38:00,28.1,26.6,29.98,SSW,212,0.0,0.0,94,0.00,,SKC,0.00,VWS V14.01,2013-01-29 03:38:00,
2013-01-28 22:39:00,28.1,26.6,29.98,SSW,213,0.0,0.0,94,0.00,,SKC,0.00,VWS V14.01,2013-01-29 03:39:00,
2013-01-28 22:40:00,28.1,26.6,29.98,SSW,213,0.0,0.0,94,0.00,,SKC,0.00,VWS V14.01,2013-01-29 03:40:00,
2013-01-28 22:41:00,28.1,26.6,29.98,SW,215,0.0,0.0,94,0.00,,SKC,0.00,VWS V14.01,2013-01-29 03:41:00,
2013-01-28 22:42:00,28.1,26.6,29.98,SSW,210,0.0,0.0,94,0.00,,SKC,0.00,VWS V14.01,2013-01-29 03:42:00,
2013-01-28 22:43:00,28.1,26.6,29.98,SSW,212,0.0,0.0,94,0.00,,SKC,0.00,VWS V14.01,2013-01-29 03:43:00,
2013-01-28 22:44:00,28.1,26.6,29.98,SW,219,0.0,0.0,94,0.00,,SKC,0.00,VWS V14.01,2013-01-29 03:44:00,
2013-01-28 22:45:00,28.1,26.6,29.98,SW,219,0.0,0.0,94,0.00,,SKC,0.00,VWS V14.01,2013-01-29 03:45:00,
2013-01-28 22:46:00,28.1,26.6,29.98,SW,222,0.0,0.0,94,0.00,,SKC,0.00,VWS V14.01,2013-01-29 03:46:00,
2013-01-28 22:47:00,28.1,26.6,29.98,SW,220,0.0,0.0,94,0.00,,SKC,0.00,VWS V14.01,2013-01-29 03:47:00,
2013-01-28 22:48:00,28.1,26.6,29.98,SSW,212,0.0,0.0,94,0.00,,SKC,0.00,VWS V14.01,2013-01-29 03:48:00,
2013-01-28 22:49:00,28.1,26.6,29.98,SSW,210,0.0,0.0,94,0.00,,SKC,0.00,VWS V14.01,2013-01-29 03:49:00,
2013-01-28 22:50:00,28.1,26.6,29.98,SSW,212,0.0,0.0,94,0.00,,SKC,0.00,VWS V14.01,2013-01-29 03:50:00,
2013-01-28 22:52:00,28.1,26.6,29.98,SSW,213,0.0,0.0,94,0.00,,SKC,0.00,VWS V14.01,2013-01-29 03:52:00,
2013-01-28 22:53:00,28.1,26.6,29.98,SSW,210,0.0,0.0,94,0.00,,SKC,0.00,VWS V14.01,2013-01-29 03:53:00,
2013-01-28 22:54:00,28.1,26.6,29.98,SW,219,0.0,0.0,94,0.00,,SKC,0.00,VWS V14.01,2013-01-29 03:54:00,
2013-01-28 22:55:00,28.1,26.6,29.98,SSW,210,0.0,0.0,94,0.00,,SKC,0.00,VWS V14.01,2013-01-29 03:55:00,
2013-01-28 22:57:00,28.1,26.6,29.98,SSW,212,0.0,0.0,94,0.00,,SKC,0.00,VWS V14.01,2013-01-29 03:57:00,
2013-01-28 22:58:00,28.1,26.6,29.98,SW,219,0.0,0.0,94,0.00,,SKC,0.00,VWS V14.01,2013-01-29 03:58:00,
2013-01-28 22:59:00,28.1,26.6,29.98,SSW,212,0.0,0.0,94,0.00,,SKC,0.00,VWS V14.01,2013-01-29 03:59:00,
2013-01-28 23:00:00,28.1,26.6,29.98,SW,216,0.0,0.0,94,0.00,,SKC,0.00,VWS V14.01,2013-01-29 04:00:00,
2013-01-28 23:02:00,28.2,26.7,29.98,SW,219,0.0,0.0,94,0.00,,SKC,0.00,VWS V14.01,2013-01-29 04:02:00,
2013-01-28 23:03:00,28.2,26.7,29.98,SSW,209,0.0,0.0,94,0.00,,SKC,0.00,VWS V14.01,2013-01-29 04:03:00,
2013-01-28 23:04:00,28.2,26.7,29.98,SSW,212,0.0,0.0,94,0.00,,SKC,0.00,VWS V14.01,2013-01-29 04:04:00,
2013-01-28 23:05:00,28.2,26.7,29.98,SSW,210,0.0,0.0,94,0.00,,SKC,0.00,VWS V14.01,2013-01-29 04:05:00,
2013-01-28 23:07:00,28.2,26.7,29.98,SSW,209,0.0,0.0,94,0.00,,SKC,0.00,VWS V14.01,2013-01-29 04:07:00,
2013-01-28 23:08:00,28.2,26.7,29.98,SSW,212,0.0,0.0,94,0.00,,SKC,0.00,VWS V14.01,2013-01-29 04:08:00,
2013-01-28 23:10:00,28.2,26.7,29.98,SSW,210,0.0,0.0,94,0.00,,SKC,0.00,VWS V14.01,2013-01-29 04:10:00,
2013-01-28 23:13:00,28.2,26.7,29.98,SW,220,0.0,0.0,94,0.00,,SKC,0.00,VWS V14.01,2013-01-29 04:13:00,
2013-01-28 23:14:00,28.2,26.7,29.98,SSW,209,0.0,0.0,94,0.00,,SKC,0.00,VWS V14.01,2013-01-29 04:14:00,
2013-01-28 23:15:00,28.2,26.7,29.98,SSW,210,0.0,0.0,94,0.00,,SKC,0.00,VWS V14.01,2013-01-29 04:15:00,
2013-01-28 23:18:00,28.2,26.7,29.98,SSW,212,0.0,0.0,94,0.00,,SKC,0.00,VWS V14.01,2013-01-29 04:18:00,
2013-01-28 23:19:00,28.2,26.7,29.98,SW,215,0.0,0.0,94,0.00,,SKC,0.00,VWS V14.01,2013-01-29 04:19:00,
2013-01-28 23:20:00,28.2,26.7,29.98,SSW,210,0.0,0.0,94,0.00,,SKC,0.00,VWS V14.01,2013-01-29 04:20:00,
2013-01-28 23:23:00,28.2,26.7,29.98,SSW,208,0.0,0.0,94,0.00,,SKC,0.00,VWS V14.01,2013-01-29 04:23:00,
2013-01-28 23:24:00,28.2,26.7,29.98,SW,219,0.0,0.0,94,0.00,,SKC,0.00,VWS V14.01,2013-01-29 04:24:00,
2013-01-28 23:25:00,28.2,26.7,29.98,SW,217,0.0,0.0,94,0.00,,SKC,0.00,VWS V14.01,2013-01-29 04:25:00,
2013-01-28 23:28:00,28.2,26.7,29.98,SSW,209,0.0,0.0,94,0.00,,SKC,0.00,VWS V14.01,2013-01-29 04:28:00,
2013-01-28 23:29:00,28.2,26.7,29.98,SSW,210,0.0,0.0,94,0.00,,SKC,0.00,VWS V14.01,2013-01-29 04:29:00,
2013-01-28 23:30:00,28.2,26.7,29.98,SW,215,0.0,0.0,94,0.00,,SKC,0.00,VWS V14.01,2013-01-29 04:30:00,
2013-01-28 23:31:00,28.2,26.7,29.98,SW,217,0.0,0.0,94,0.00,,SKC,0.00,VWS V14.01,2013-01-29 04:31:00,
2013-01-28 23:34:00,28.2,26.7,29.98,SSW,210,0.0,0.0,94,0.00,,SKC,0.00,VWS V14.01,2013-01-29 04:34:00,
2013-01-28 23:35:00,28.2,26.7,29.98,SW,215,0.0,0.0,94,0.00,,SKC,0.00,VWS V14.01,2013-01-29 04:35:00,
2013-01-28 23:36:00,28.2,26.7,29.98,SW,220,0.0,0.0,94,0.00,,SKC,0.00,VWS V14.01,2013-01-29 04:36:00,
2013-01-28 23:39:00,28.2,26.7,29.98,SSW,213,0.0,0.0,94,0.00,,SKC,0.00,VWS V14.01,2013-01-29 04:39:00,
2013-01-28 23:40:00,28.2,26.7,29.98,SSW,209,0.0,0.0,94,0.00,,SKC,0.00,VWS V14.01,2013-01-29 04:40:00,
2013-01-28 23:41:00,28.2,26.7,29.98,SSW,208,0.0,0.0,94,0.00,,SKC,0.00,VWS V14.01,2013-01-29 04:41:00,
2013-01-28 23:44:00,28.2,26.7,29.98,SSW,206,0.0,0.0,94,0.00,,SKC,0.00,VWS V14.01,2013-01-29 04:44:00,
2013-01-28 23:45:00,28.2,26.7,29.98,SSW,212,0.0,0.0,94,0.00,,SKC,0.00,VWS V14.01,2013-01-29 04:45:00,
2013-01-28 23:47:00,28.2,26.7,29.98,SSW,212,0.0,0.0,94,0.00,,SKC,0.00,VWS V14.01,2013-01-29 04:47:00,
2013-01-28 23:49:00,28.2,26.7,29.98,SW,219,0.0,0.0,94,0.00,,SKC,0.00,VWS V14.01,2013-01-29 04:49:00,
2013-01-28 23:50:00,28.4,26.9,29.98,SSW,213,0.0,0.0,94,0.00,,SKC,0.00,VWS V14.01,2013-01-29 04:50:00,
2013-01-28 23:52:00,28.4,26.9,29.98,SSW,210,0.0,0.0,94,0.00,,SKC,0.00,VWS V14.01,2013-01-29 04:52:00,
2013-01-28 23:54:00,28.4,26.9,29.98,SSW,212,0.0,0.0,94,0.00,,SKC,0.00,VWS V14.01,2013-01-29 04:54:00,
2013-01-28 23:55:00,28.4,26.9,29.98,SSW,208,0.0,0.0,94,0.00,,SKC,0.00,VWS V14.01,2013-01-29 04:55:00,
2013-01-28 23:57:00,28.4,26.9,29.98,SSW,209,0.0,0.0,94,0.00,,SKC,0.00,VWS V14.01,2013-01-29 04:57:00,
2013-01-28 23:59:00,28.4,26.9,29.97,SW,215,0.0,0.0,94,0.00,,SKC,0.00,VWS V14.01,2013-01-29 04:59:00,